Wetterdaten: Freitag, 01.02.2013
Datum Zeit Temp. Aussen +5cm Feuchte Auss BlattFeu 1 Luftdruck Regen Sonnenschein UV Solar Windben
01.02.2013 00:00 7,6 C 6,2 C 84 % 0 lf 1011,9 hPa 0,0 l/m 0 min 0,0 UV-I 0 W/m 15,4 km/h (3 Bft)
01.02.2013 00:02 7,6 C 6,2 C 84 % 0 lf 1011,9 hPa 0,0 l/m 0 min 0,0 UV-I 0 W/m 15,4 km/h (3 Bft)
01.02.2013 00:06 7,5 C 5,7 C 85 % 0 lf 1011,9 hPa 0,0 l/m 0 min 0,0 UV-I 0 W/m 18,0 km/h (3 Bft)
01.02.2013 00:08 7,5 C 5,7 C 85 % 0 lf 1011,9 hPa 0,0 l/m 0 min 0,0 UV-I 0 W/m 12,9 km/h (3 Bft)
01.02.2013 00:10 7,4 C 5,7 C 85 % 0 lf 1012,0 hPa 0,0 l/m 0 min 0,0 UV-I 0 W/m 28,3 km/h (4 Bft)
01.02.2013 00:12 7,4 C 5,7 C 85 % 0 lf 1011,9 hPa 0,0 l/m 0 min 0,0 UV-I 0 W/m 10,3 km/h (2 Bft)
01.02.2013 00:14 7,4 C 5,7 C 85 % 0 lf 1011,9 hPa 0,0 l/m 0 min 0,0 UV-I 0 W/m 18,0 km/h (3 Bft)
01.02.2013 00:16 7,4 C 5,7 C 85 % 0 lf 1011,9 hPa 0,0 l/m 0 min 0,0 UV-I 0 W/m 12,9 km/h (3 Bft)
01.02.2013 00:18 7,3 C 5,7 C 85 % 0 lf 1011,8 hPa 0,0 l/m 0 min 0,0 UV-I 0 W/m 20,6 km/h (4 Bft)
01.02.2013 00:20 7,3 C 5,7 C 85 % 0 lf 1011,9 hPa 0,0 l/m 0 min 0,0 UV-I 0 W/m 10,3 km/h (2 Bft)
01.02.2013 00:22 7,3 C 5,7 C 85 % 0 lf 1011,9 hPa 0,0 l/m 0 min 0,0 UV-I 0 W/m 10,3 km/h (2 Bft)
01.02.2013 00:24 7,3 C 5,7 C 86 % 0 lf 1011,9 hPa 0,0 l/m 0 min 0,0 UV-I 0 W/m 23,2 km/h (4 Bft)
01.02.2013 00:26 7,3 C 5,7 C 86 % 0 lf 1011,9 hPa 0,0 l/m 0 min 0,0 UV-I 0 W/m 18,0 km/h (3 Bft)
01.02.2013 00:28 7,3 C 5,7 C 86 % 0 lf 1011,8 hPa 0,0 l/m 0 min 0,0 UV-I 0 W/m 23,2 km/h (4 Bft)
01.02.2013 00:30 7,3 C 5,7 C 86 % 0 lf 1011,9 hPa 0,0 l/m 0 min 0,0 UV-I 0 W/m 12,9 km/h (3 Bft)
01.02.2013 00:32 7,3 C 5,7 C 86 % 0 lf 1011,9 hPa 0,0 l/m 0 min 0,0 UV-I 0 W/m 18,0 km/h (3 Bft)
01.02.2013 00:34 7,3 C 5,7 C 86 % 0 lf 1011,8 hPa 0,0 l/m 0 min 0,0 UV-I 0 W/m 18,0 km/h (3 Bft)
01.02.2013 00:36 7,3 C 5,7 C 86 % 0 lf 1011,9 hPa 0,0 l/m 0 min 0,0 UV-I 0 W/m 15,4 km/h (3 Bft)
01.02.2013 00:38 7,2 C 5,7 C 86 % 0 lf 1011,9 hPa 0,0 l/m 0 min 0,0 UV-I 0 W/m 15,4 km/h (3 Bft)
01.02.2013 00:40 7,2 C 5,7 C 86 % 0 lf 1011,8 hPa 0,0 l/m 0 min 0,0 UV-I 0 W/m 10,3 km/h (2 Bft)
01.02.2013 00:42 7,2 C 5,7 C 86 % 0 lf 1011,9 hPa 0,0 l/m 0 min 0,0 UV-I 0 W/m 10,3 km/h (2 Bft)
01.02.2013 00:44 7,2 C 5,7 C 86 % 0 lf 1011,9 hPa 0,0 l/m 0 min 0,0 UV-I 0 W/m 18,0 km/h (3 Bft)
01.02.2013 00:46 7,2 C 5,7 C 86 % 0 lf 1011,9 hPa 0,0 l/m 0 min 0,0 UV-I 0 W/m 15,4 km/h (3 Bft)
01.02.2013 00:48 7,2 C 5,7 C 86 % 0 lf 1011,8 hPa 0,0 l/m 0 min 0,0 UV-I 0 W/m 15,4 km/h (3 Bft)
01.02.2013 00:50 7,2 C 5,7 C 86 % 0 lf 1011,8 hPa 0,0 l/m 0 min 0,0 UV-I 0 W/m 15,4 km/h (3 Bft)
01.02.2013 00:52 7,2 C 5,7 C 86 % 0 lf 1011,8 hPa 0,0 l/m 0 min 0,0 UV-I 0 W/m 23,2 km/h (4 Bft)
01.02.2013 00:54 7,2 C 5,7 C 86 % 0 lf 1011,8 hPa 0,0 l/m 0 min 0,0 UV-I 0 W/m 12,9 km/h (3 Bft)
01.02.2013 00:56 7,2 C 5,7 C 87 % 0 lf 1011,8 hPa 0,0 l/m 0 min 0,0 UV-I 0 W/m 18,0 km/h (3 Bft)
01.02.2013 00:58 7,2 C 5,7 C 87 % 0 lf 1011,7 hPa 0,0 l/m 0 min 0,0 UV-I 0 W/m 15,4 km/h (3 Bft)
01.02.2013 01:00 7,2 C 5,7 C 87 % 0 lf 1011,9 hPa 0,0 l/m 0 min 0,0 UV-I 0 W/m 18,0 km/h (3 Bft)
01.02.2013 01:02 7,2 C 5,7 C 87 % 0 lf 1011,6 hPa 0,0 l/m 0 min 0,0 UV-I 0 W/m 20,6 km/h (4 Bft)
01.02.2013 01:04 7,2 C 5,7 C 87 % 0 lf 1011,6 hPa 0,0 l/m 0 min 0,0 UV-I 0 W/m 20,6 km/h (4 Bft)
01.02.2013 01:06 7,2 C 5,7 C 87 % 0 lf 1011,5 hPa 0,0 l/m 0 min 0,0 UV-I 0 W/m 25,7 km/h (4 Bft)
01.02.2013 01:08 7,2 C 5,7 C 87 % 0 lf 1011,7 hPa 0,0 l/m 0 min 0,0 UV-I 0 W/m 20,6 km/h (4 Bft)
01.02.2013 01:10 7,1 C 5,7 C 87 % 0 lf 1011,6 hPa 0,0 l/m 0 min 0,0 UV-I 0 W/m 20,6 km/h (4 Bft)
01.02.2013 01:12 7,1 C 5,7 C 87 % 0 lf 1011,5 hPa 0,0 l/m 0 min 0,0 UV-I 0 W/m 18,0 km/h (3 Bft)
01.02.2013 01:14 7,1 C 5,7 C 87 % 0 lf 1011,5 hPa 0,0 l/m 0 min 0,0 UV-I 0 W/m 10,3 km/h (2 Bft)
01.02.2013 01:16 7,1 C 5,7 C 87 % 0 lf 1011,5 hPa 0,0 l/m 0 min 0,0 UV-I 0 W/m 12,9 km/h (3 Bft)
01.02.2013 01:18 7,1 C 5,7 C 87 % 0 lf 1011,4 hPa 0,0 l/m 0 min 0,0 UV-I 0 W/m 18,0 km/h (3 Bft)
01.02.2013 01:20 7,1 C 5,7 C 87 % 0 lf 1011,4 hPa 0,0 l/m 0 min 0,0 UV-I 0 W/m 12,9 km/h (3 Bft)
01.02.2013 01:22 7,1 C 5,7 C 87 % 0 lf 1011,5 hPa 0,0 l/m 0 min 0,0 UV-I 0 W/m 28,3 km/h (4 Bft)
01.02.2013 01:24 7,1 C 5,7 C 87 % 0 lf 1011,4 hPa 0,0 l/m 0 min 0,0 UV-I 0 W/m 25,7 km/h (4 Bft)
01.02.2013 01:26 7,1 C 5,7 C 87 % 0 lf 1011,4 hPa 0,0 l/m 0 min 0,0 UV-I 0 W/m 12,9 km/h (3 Bft)
01.02.2013 01:28 7,1 C 5,7 C 87 % 0 lf 1011,4 hPa 0,0 l/m 0 min 0,0 UV-I 0 W/m 15,4 km/h (3 Bft)
01.02.2013 01:30 7,1 C 5,7 C 87 % 0 lf 1011,4 hPa 0,0 l/m 0 min 0,0 UV-I 0 W/m 12,9 km/h (3 Bft)
01.02.2013 01:32 7,1 C 5,7 C 87 % 0 lf 1011,3 hPa 0,0 l/m 0 min 0,0 UV-I 0 W/m 23,2 km/h (4 Bft)
01.02.2013 01:34 7,1 C 5,7 C 87 % 0 lf 1011,3 hPa 0,0 l/m 0 min 0,0 UV-I 0 W/m 15,4 km/h (3 Bft)
01.02.2013 01:36 7,1 C 5,7 C 87 % 0 lf 1011,4 hPa 0,0 l/m 0 min 0,0 UV-I 0 W/m 18,0 km/h (3 Bft)
01.02.2013 01:38 7,1 C 5,7 C 88 % 0 lf 1011,4 hPa 0,0 l/m 0 min 0,0 UV-I 0 W/m 15,4 km/h (3 Bft)
01.02.2013 01:40 7,1 C 5,7 C 88 % 0 lf 1011,3 hPa 0,0 l/m 0 min 0,0 UV-I 0 W/m 12,9 km/h (3 Bft)
01.02.2013 01:42 7,1 C 5,7 C 88 % 0 lf 1011,4 hPa 0,0 l/m 0 min 0,0 UV-I 0 W/m 15,4 km/h (3 Bft)
01.02.2013 01:44 7,1 C 5,7 C 88 % 0 lf 1011,3 hPa 0,0 l/m 0 min 0,0 UV-I 0 W/m 15,4 km/h (3 Bft)
01.02.2013 01:46 7,1 C 5,7 C 88 % 0 lf 1011,3 hPa 0,0 l/m 0 min 0,0 UV-I 0 W/m 12,9 km/h (3 Bft)
01.02.2013 01:48 7,0 C 5,7 C 88 % 0 lf 1011,3 hPa 0,0 l/m 0 min 0,0 UV-I 0 W/m 10,3 km/h (2 Bft)
01.02.2013 01:50 7,1 C 5,7 C 88 % 0 lf 1011,2 hPa 0,0 l/m 0 min 0,0 UV-I 0 W/m 18,0 km/h (3 Bft)
01.02.2013 01:52 7,0 C 5,7 C 88 % 0 lf 1011,2 hPa 0,0 l/m 0 min 0,0 UV-I 0 W/m 10,3 km/h (2 Bft)
01.02.2013 01:54 7,1 C 5,7 C 88 % 0 lf 1011,2 hPa 0,0 l/m 0 min 0,0 UV-I 0 W/m 25,7 km/h (4 Bft)
01.02.2013 01:56 7,1 C 5,7 C 88 % 0 lf 1011,2 hPa 0,0 l/m 0 min 0,0 UV-I 0 W/m 18,0 km/h (3 Bft)
01.02.2013 01:58 7,1 C 5,7 C 88 % 0 lf 1011,2 hPa 0,0 l/m 0 min 0,0 UV-I 0 W/m 15,4 km/h (3 Bft)
01.02.2013 02:00 7,1 C 5,7 C 88 % 0 lf 1011,2 hPa 0,0 l/m 0 min 0,0 UV-I 0 W/m 18,0 km/h (3 Bft)
01.02.2013 02:02 7,1 C 5,7 C 88 % 0 lf 1011,2 hPa 0,0 l/m 0 min 0,0 UV-I 0 W/m 20,6 km/h (4 Bft)
01.02.2013 02:04 7,1 C 5,7 C 88 % 0 lf 1011,3 hPa 0,0 l/m 0 min 0,0 UV-I 0 W/m 23,2 km/h (4 Bft)
01.02.2013 02:06 7,2 C 5,7 C 88 % 0 lf 1011,1 hPa 0,0 l/m 0 min 0,0 UV-I 0 W/m 12,9 km/h (3 Bft)
01.02.2013 02:08 7,2 C 5,7 C 88 % 0 lf 1011,1 hPa 0,0 l/m 0 min 0,0 UV-I 0 W/m 15,4 km/h (3 Bft)
01.02.2013 02:10 7,2 C 5,7 C 88 % 0 lf 1011,1 hPa 0,0 l/m 0 min 0,0 UV-I 0 W/m 23,2 km/h (4 Bft)
01.02.2013 02:12 7,2 C 5,7 C 88 % 0 lf 1011,0 hPa 0,0 l/m 0 min 0,0 UV-I 0 W/m 7,7 km/h (2 Bft)
01.02.2013 02:14 7,2 C 5,7 C 88 % 0 lf 1011,1 hPa 0,0 l/m 0 min 0,0 UV-I 0 W/m 10,3 km/h (2 Bft)
01.02.2013 02:16 7,2 C 5,7 C 88 % 0 lf 1011,0 hPa 0,0 l/m 0 min 0,0 UV-I 0 W/m 25,7 km/h (4 Bft)
01.02.2013 02:18 7,2 C 6,2 C 88 % 0 lf 1011,0 hPa 0,0 l/m 0 min 0,0 UV-I 0 W/m 15,4 km/h (3 Bft)
01.02.2013 02:20 7,3 C 6,2 C 88 % 0 lf 1010,8 hPa 0,0 l/m 0 min 0,0 UV-I 0 W/m 18,0 km/h (3 Bft)
01.02.2013 02:22 7,3 C 6,2 C 88 % 0 lf 1011,0 hPa 0,0 l/m 0 min 0,0 UV-I 0 W/m 18,0 km/h (3 Bft)
01.02.2013 02:24 7,3 C 6,2 C 87 % 0 lf 1011,0 hPa 0,0 l/m 0 min 0,0 UV-I 0 W/m 5,1 km/h (1 Bft)
01.02.2013 02:26 7,4 C 6,2 C 87 % 0 lf 1011,0 hPa 0,0 l/m 0 min 0,0 UV-I 0 W/m 12,9 km/h (3 Bft)
01.02.2013 02:28 7,4 C 6,2 C 87 % 0 lf 1011,0 hPa 0,0 l/m 0 min 0,0 UV-I 0 W/m 20,6 km/h (4 Bft)
01.02.2013 02:30 7,4 C 5,7 C 87 % 0 lf 1010,9 hPa 0,0 l/m 0 min 0,0 UV-I 0 W/m 12,9 km/h (3 Bft)
01.02.2013 02:32 7,4 C 5,7 C 87 % 0 lf 1010,8 hPa 0,0 l/m 0 min 0,0 UV-I 0 W/m 12,9 km/h (3 Bft)
01.02.2013 02:34 7,3 C 5,7 C 87 % 0 lf 1010,8 hPa 0,0 l/m 0 min 0,0 UV-I 0 W/m 18,0 km/h (3 Bft)
01.02.2013 02:36 7,3 C 5,7 C 87 % 0 lf 1010,8 hPa 0,0 l/m 0 min 0,0 UV-I 0 W/m 10,3 km/h (2 Bft)
01.02.2013 02:38 7,3 C 5,7 C 87 % 0 lf 1010,8 hPa 0,0 l/m 0 min 0,0 UV-I 0 W/m 12,9 km/h (3 Bft)
01.02.2013 02:40 7,3 C 5,7 C 87 % 0 lf 1010,8 hPa 0,0 l/m 0 min 0,0 UV-I 0 W/m 15,4 km/h (3 Bft)
01.02.2013 02:42 7,3 C 5,7 C 87 % 0 lf 1010,7 hPa 0,0 l/m 0 min 0,0 UV-I 0 W/m 15,4 km/h (3 Bft)
01.02.2013 02:44 7,3 C 5,7 C 87 % 0 lf 1010,8 hPa 0,0 l/m 0 min 0,0 UV-I 0 W/m 10,3 km/h (2 Bft)
01.02.2013 02:46 7,3 C 5,7 C 87 % 0 lf 1010,7 hPa 0,0 l/m 0 min 0,0 UV-I 0 W/m 15,4 km/h (3 Bft)
01.02.2013 02:48 7,3 C 5,7 C 87 % 0 lf 1010,6 hPa 0,0 l/m 0 min 0,0 UV-I 0 W/m 18,0 km/h (3 Bft)
01.02.2013 02:50 7,3 C 5,7 C 87 % 0 lf 1010,6 hPa 0,0 l/m 0 min 0,0 UV-I 0 W/m 18,0 km/h (3 Bft)
01.02.2013 02:52 7,3 C 5,7 C 87 % 0 lf 1010,6 hPa 0,0 l/m 0 min 0,0 UV-I 0 W/m 12,9 km/h (3 Bft)
01.02.2013 02:54 7,3 C 5,7 C 87 % 0 lf 1010,5 hPa 0,0 l/m 0 min 0,0 UV-I 0 W/m 23,2 km/h (4 Bft)
01.02.2013 02:56 7,3 C 5,7 C 87 % 0 lf 1010,5 hPa 0,0 l/m 0 min 0,0 UV-I 0 W/m 12,9 km/h (3 Bft)
01.02.2013 02:58 7,3 C 5,7 C 87 % 0 lf 1010,6 hPa 0,0 l/m 0 min 0,0 UV-I 0 W/m 12,9 km/h (3 Bft)
01.02.2013 03:00 7,3 C 5,7 C 87 % 0 lf 1010,6 hPa 0,0 l/m 0 min 0,0 UV-I 0 W/m 10,3 km/h (2 Bft)
01.02.2013 03:02 7,3 C 5,7 C 87 % 0 lf 1010,6 hPa 0,0 l/m 0 min 0,0 UV-I 0 W/m 10,3 km/h (2 Bft)
01.02.2013 03:05 7,2 C 5,7 C 88 % 0 lf 1010,6 hPa 0,0 l/m 0 min 0,0 UV-I 0 W/m 18,0 km/h (3 Bft)
01.02.2013 03:06 7,3 C 5,7 C 88 % 0 lf 1010,7 hPa 0,0 l/m 0 min 0,0 UV-I 0 W/m 18,0 km/h (3 Bft)
01.02.2013 03:08 7,3 C 5,7 C 88 % 0 lf 1010,6 hPa 0,0 l/m 0 min 0,0 UV-I 0 W/m 10,3 km/h (2 Bft)
01.02.2013 03:10 7,3 C 5,7 C 88 % 0 lf 1010,6 hPa 0,0 l/m 0 min 0,0 UV-I 0 W/m 15,4 km/h (3 Bft)
01.02.2013 03:12 7,3 C 6,2 C 88 % 0 lf 1010,6 hPa 0,0 l/m 0 min 0,0 UV-I 0 W/m 12,9 km/h (3 Bft)
01.02.2013 03:14 7,3 C 5,7 C 88 % 0 lf 1010,6 hPa 0,0 l/m 0 min 0,0 UV-I 0 W/m 18,0 km/h (3 Bft)
01.02.2013 03:16 7,3 C 5,7 C 88 % 0 lf 1010,5 hPa 0,0 l/m 0 min 0,0 UV-I 0 W/m 18,0 km/h (3 Bft)
01.02.2013 03:18 7,3 C 5,7 C 88 % 0 lf 1010,4 hPa 0,0 l/m 0 min 0,0 UV-I 0 W/m 12,9 km/h (3 Bft)
01.02.2013 03:20 7,3 C 5,7 C 88 % 0 lf 1010,4 hPa 0,0 l/m 0 min 0,0 UV-I 0 W/m 5,1 km/h (1 Bft)
01.02.2013 03:22 7,3 C 5,7 C 88 % 0 lf 1010,4 hPa 0,0 l/m 0 min 0,0 UV-I 0 W/m 12,9 km/h (3 Bft)
01.02.2013 03:24 7,2 C 5,7 C 88 % 0 lf 1010,4 hPa 0,0 l/m 0 min 0,0 UV-I 0 W/m 18,0 km/h (3 Bft)
01.02.2013 03:26 7,3 C 6,2 C 88 % 0 lf 1010,4 hPa 0,0 l/m 0 min 0,0 UV-I 0 W/m 10,3 km/h (2 Bft)
01.02.2013 03:28 7,3 C 6,2 C 88 % 0 lf 1010,4 hPa 0,0 l/m 0 min 0,0 UV-I 0 W/m 12,9 km/h (3 Bft)
01.02.2013 03:30 7,3 C 6,2 C 88 % 0 lf 1010,5 hPa 0,0 l/m 0 min 0,0 UV-I 0 W/m 20,6 km/h (4 Bft)
01.02.2013 03:32 7,3 C 5,7 C 88 % 0 lf 1010,4 hPa 0,0 l/m 0 min 0,0 UV-I 0 W/m 20,6 km/h (4 Bft)
01.02.2013 03:34 7,3 C 5,7 C 88 % 0 lf 1010,3 hPa 0,0 l/m 0 min 0,0 UV-I 0 W/m 10,3 km/h (2 Bft)
01.02.2013 03:36 7,3 C 5,7 C 88 % 0 lf 1010,3 hPa 0,0 l/m 0 min 0,0 UV-I 0 W/m 12,9 km/h (3 Bft)
01.02.2013 03:38 7,3 C 5,7 C 88 % 0 lf 1010,3 hPa 0,0 l/m 0 min 0,0 UV-I 0 W/m 12,9 km/h (3 Bft)
01.02.2013 03:40 7,3 C 5,7 C 88 % 0 lf 1010,4 hPa 0,0 l/m 0 min 0,0 UV-I 0 W/m 12,9 km/h (3 Bft)
01.02.2013 03:42 7,3 C 5,7 C 88 % 0 lf 1010,4 hPa 0,0 l/m 0 min 0,0 UV-I 0 W/m 7,7 km/h (2 Bft)
01.02.2013 03:44 7,3 C 5,7 C 88 % 0 lf 1010,3 hPa 0,0 l/m 0 min 0,0 UV-I 0 W/m 2,6 km/h (1 Bft)
01.02.2013 03:46 7,3 C 5,7 C 89 % 0 lf 1010,3 hPa 0,0 l/m 0 min 0,0 UV-I 0 W/m 10,3 km/h (2 Bft)
01.02.2013 03:48 7,3 C 5,7 C 89 % 0 lf 1010,3 hPa 0,0 l/m 0 min 0,0 UV-I 0 W/m 7,7 km/h (2 Bft)
01.02.2013 03:50 7,2 C 5,7 C 89 % 0 lf 1010,1 hPa 0,0 l/m 0 min 0,0 UV-I 0 W/m 7,7 km/h (2 Bft)
01.02.2013 03:52 7,3 C 5,7 C 89 % 0 lf 1010,1 hPa 0,0 l/m 0 min 0,0 UV-I 0 W/m 12,9 km/h (3 Bft)
01.02.2013 03:54 7,2 C 5,7 C 89 % 0 lf 1010,1 hPa 0,0 l/m 0 min 0,0 UV-I 0 W/m 7,7 km/h (2 Bft)
01.02.2013 03:56 7,2 C 5,7 C 89 % 0 lf 1010,3 hPa 0,0 l/m 0 min 0,0 UV-I 0 W/m 2,6 km/h (1 Bft)
01.02.2013 03:58 7,2 C 5,7 C 89 % 0 lf 1010,0 hPa 0,0 l/m 0 min 0,0 UV-I 0 W/m 7,7 km/h (2 Bft)
01.02.2013 04:00 7,2 C 5,7 C 89 % 0 lf 1010,0 hPa 0,0 l/m 0 min 0,0 UV-I 0 W/m 10,3 km/h (2 Bft)
01.02.2013 04:02 7,2 C 5,7 C 89 % 0 lf 1010,0 hPa 0,0 l/m 0 min 0,0 UV-I 0 W/m 18,0 km/h (3 Bft)
01.02.2013 04:07 7,2 C 5,7 C 89 % 0 lf 1010,0 hPa 0,0 l/m 0 min 0,0 UV-I 0 W/m 10,3 km/h (2 Bft)
01.02.2013 04:08 7,2 C 5,7 C 89 % 0 lf 1009,9 hPa 0,0 l/m 0 min 0,0 UV-I 0 W/m 7,7 km/h (2 Bft)
01.02.2013 04:10 7,2 C 6,2 C 89 % 0 lf 1009,9 hPa 0,0 l/m 0 min 0,0 UV-I 0 W/m 10,3 km/h (2 Bft)
01.02.2013 04:12 7,2 C 6,2 C 89 % 2 lf 1009,9 hPa 0,0 l/m 0 min 0,0 UV-I 0 W/m 15,4 km/h (3 Bft)
01.02.2013 04:14 7,2 C 6,2 C 89 % 1 lf 1009,9 hPa 0,0 l/m 0 min 0,0 UV-I 0 W/m 18,0 km/h (3 Bft)
01.02.2013 04:16 7,2 C 6,2 C 89 % 0 lf 1009,8 hPa 0,0 l/m 0 min 0,0 UV-I 0 W/m 12,9 km/h (3 Bft)
01.02.2013 04:18 7,3 C 6,2 C 89 % 2 lf 1009,7 hPa 0,0 l/m 0 min 0,0 UV-I 0 W/m 15,4 km/h (3 Bft)
01.02.2013 04:20 7,3 C 5,7 C 89 % 14 lf 1009,7 hPa 0,0 l/m 0 min 0,0 UV-I 0 W/m 18,0 km/h (3 Bft)
01.02.2013 04:22 7,3 C 5,7 C 90 % 14 lf 1009,5 hPa 0,0 l/m 0 min 0,0 UV-I 0 W/m 23,2 km/h (4 Bft)
01.02.2013 04:24 7,3 C 5,7 C 90 % 9 lf 1009,6 hPa 0,0 l/m 0 min 0,0 UV-I 0 W/m 12,9 km/h (3 Bft)
01.02.2013 04:26 7,3 C 5,7 C 90 % 1 lf 1009,4 hPa 0,0 l/m 0 min 0,0 UV-I 0 W/m 10,3 km/h (2 Bft)
01.02.2013 04:28 7,2 C 5,7 C 90 % 0 lf 1009,5 hPa 0,0 l/m 0 min 0,0 UV-I 0 W/m 12,9 km/h (3 Bft)
01.02.2013 04:30 7,3 C 5,7 C 90 % 0 lf 1009,5 hPa 0,0 l/m 0 min 0,0 UV-I 0 W/m 2,6 km/h (1 Bft)
01.02.2013 04:32 7,2 C 5,7 C 90 % 0 lf 1009,5 hPa 0,0 l/m 0 min 0,0 UV-I 0 W/m 2,6 km/h (1 Bft)
01.02.2013 04:34 7,2 C 5,7 C 90 % 0 lf 1009,4 hPa 0,0 l/m 0 min 0,0 UV-I 0 W/m 12,9 km/h (3 Bft)
01.02.2013 04:36 7,2 C 5,7 C 90 % 0 lf 1009,4 hPa 0,0 l/m 0 min 0,0 UV-I 0 W/m 23,2 km/h (4 Bft)
01.02.2013 04:38 7,2 C 5,7 C 90 % 0 lf 1009,4 hPa 0,0 l/m 0 min 0,0 UV-I 0 W/m 12,9 km/h (3 Bft)
01.02.2013 04:40 7,2 C 5,7 C 90 % 0 lf 1009,4 hPa 0,0 l/m 0 min 0,0 UV-I 0 W/m 10,3 km/h (2 Bft)
01.02.2013 04:42 7,2 C 5,7 C 90 % 0 lf 1009,4 hPa 0,0 l/m 0 min 0,0 UV-I 0 W/m 12,9 km/h (3 Bft)
01.02.2013 04:44 7,2 C 5,7 C 90 % 0 lf 1009,4 hPa 0,0 l/m 0 min 0,0 UV-I 0 W/m 7,7 km/h (2 Bft)
01.02.2013 04:46 7,2 C 5,7 C 90 % 0 lf 1009,4 hPa 0,0 l/m 0 min 0,0 UV-I 0 W/m 12,9 km/h (3 Bft)
01.02.2013 04:48 7,2 C 5,7 C 90 % 0 lf 1009,4 hPa 0,0 l/m 0 min 0,0 UV-I 0 W/m 12,9 km/h (3 Bft)
01.02.2013 04:50 7,2 C 5,7 C 90 % 0 lf 1009,4 hPa 0,0 l/m 0 min 0,0 UV-I 0 W/m 12,9 km/h (3 Bft)
01.02.2013 04:52 7,2 C 5,7 C 90 % 0 lf 1009,5 hPa 0,0 l/m 0 min 0,0 UV-I 0 W/m 12,9 km/h (3 Bft)
01.02.2013 04:54 7,2 C 5,7 C 90 % 0 lf 1009,4 hPa 0,0 l/m 0 min 0,0 UV-I 0 W/m 12,9 km/h (3 Bft)
01.02.2013 04:56 7,2 C 5,7 C 90 % 0 lf 1009,4 hPa 0,0 l/m 0 min 0,0 UV-I 0 W/m 7,7 km/h (2 Bft)
01.02.2013 04:58 7,2 C 5,7 C 90 % 1 lf 1009,3 hPa 0,0 l/m 0 min 0,0 UV-I 0 W/m 23,2 km/h (4 Bft)
01.02.2013 05:00 7,2 C 5,7 C 90 % 0 lf 1009,3 hPa 0,0 l/m 0 min 0,0 UV-I 0 W/m 7,7 km/h (2 Bft)
01.02.2013 05:02 7,2 C 5,7 C 90 % 3 lf 1009,3 hPa 0,0 l/m 0 min 0,0 UV-I 0 W/m 12,9 km/h (3 Bft)
01.02.2013 05:04 7,2 C 5,7 C 90 % 12 lf 1009,2 hPa 0,0 l/m 0 min 0,0 UV-I 0 W/m 5,1 km/h (1 Bft)
01.02.2013 05:06 7,2 C 5,7 C 90 % 13 lf 1009,2 hPa 0,0 l/m 0 min 0,0 UV-I 0 W/m 20,6 km/h (4 Bft)
01.02.2013 05:08 7,2 C 5,7 C 90 % 10 lf 1009,1 hPa 0,0 l/m 0 min 0,0 UV-I 0 W/m 18,0 km/h (3 Bft)
01.02.2013 05:10 7,2 C 5,7 C 90 % 3 lf 1009,1 hPa 0,0 l/m 0 min 0,0 UV-I 0 W/m 12,9 km/h (3 Bft)
01.02.2013 05:12 7,2 C 5,7 C 90 % 0 lf 1009,0 hPa 0,0 l/m 0 min 0,0 UV-I 0 W/m 10,3 km/h (2 Bft)
01.02.2013 05:14 7,2 C 5,7 C 90 % 0 lf 1009,0 hPa 0,0 l/m 0 min 0,0 UV-I 0 W/m 10,3 km/h (2 Bft)
01.02.2013 05:16 7,2 C 5,7 C 90 % 0 lf 1009,0 hPa 0,0 l/m 0 min 0,0 UV-I 0 W/m 10,3 km/h (2 Bft)
01.02.2013 05:18 7,2 C 5,7 C 90 % 0 lf 1009,0 hPa 0,0 l/m 0 min 0,0 UV-I 0 W/m 10,3 km/h (2 Bft)
01.02.2013 05:20 7,2 C 5,7 C 90 % 0 lf 1009,0 hPa 0,0 l/m 0 min 0,0 UV-I 0 W/m 5,1 km/h (1 Bft)
01.02.2013 05:22 7,2 C 5,7 C 90 % 0 lf 1009,0 hPa 0,0 l/m 0 min 0,0 UV-I 0 W/m 10,3 km/h (2 Bft)
01.02.2013 05:24 7,2 C 5,7 C 90 % 0 lf 1008,9 hPa 0,0 l/m 0 min 0,0 UV-I 0 W/m 10,3 km/h (2 Bft)
01.02.2013 05:26 7,2 C 5,7 C 90 % 0 lf 1008,9 hPa 0,0 l/m 0 min 0,0 UV-I 0 W/m 7,7 km/h (2 Bft)
01.02.2013 05:28 7,2 C 5,7 C 90 % 0 lf 1008,9 hPa 0,0 l/m 0 min 0,0 UV-I 0 W/m 10,3 km/h (2 Bft)
01.02.2013 05:30 7,2 C 6,2 C 90 % 0 lf 1008,9 hPa 0,0 l/m 0 min 0,0 UV-I 0 W/m 10,3 km/h (2 Bft)
01.02.2013 05:32 7,2 C 6,2 C 90 % 0 lf 1008,8 hPa 0,0 l/m 0 min 0,0 UV-I 0 W/m 15,4 km/h (3 Bft)
01.02.2013 05:34 7,2 C 6,2 C 90 % 0 lf 1008,8 hPa 0,0 l/m 0 min 0,0 UV-I 0 W/m 7,7 km/h (2 Bft)
01.02.2013 05:36 7,2 C 6,2 C 90 % 0 lf 1008,7 hPa 0,0 l/m 0 min 0,0 UV-I 0 W/m 12,9 km/h (3 Bft)
01.02.2013 05:38 7,2 C 6,2 C 90 % 0 lf 1008,6 hPa 0,0 l/m 0 min 0,0 UV-I 0 W/m 10,3 km/h (2 Bft)
01.02.2013 05:40 7,2 C 6,2 C 90 % 0 lf 1008,6 hPa 0,0 l/m 0 min 0,0 UV-I 0 W/m 15,4 km/h (3 Bft)
01.02.2013 05:42 7,2 C 6,2 C 90 % 0 lf 1008,6 hPa 0,0 l/m 0 min 0,0 UV-I 0 W/m 18,0 km/h (3 Bft)
01.02.2013 05:44 7,2 C 6,2 C 90 % 0 lf 1008,6 hPa 0,0 l/m 0 min 0,0 UV-I 0 W/m 10,3 km/h (2 Bft)
01.02.2013 05:46 7,3 C 6,2 C 90 % 0 lf 1008,5 hPa 0,0 l/m 0 min 0,0 UV-I 0 W/m 10,3 km/h (2 Bft)
01.02.2013 05:48 7,3 C 6,2 C 90 % 0 lf 1008,6 hPa 0,0 l/m 0 min 0,0 UV-I 0 W/m 18,0 km/h (3 Bft)
01.02.2013 05:50 7,3 C 6,2 C 90 % 0 lf 1008,5 hPa 0,0 l/m 0 min 0,0 UV-I 0 W/m 7,7 km/h (2 Bft)
01.02.2013 05:52 7,3 C 6,2 C 90 % 0 lf 1008,5 hPa 0,0 l/m 0 min 0,0 UV-I 0 W/m 12,9 km/h (3 Bft)
01.02.2013 05:54 7,3 C 6,2 C 90 % 0 lf 1008,5 hPa 0,0 l/m 0 min 0,0 UV-I 0 W/m 15,4 km/h (3 Bft)
01.02.2013 05:56 7,3 C 6,2 C 90 % 0 lf 1008,4 hPa 0,0 l/m 0 min 0,0 UV-I 0 W/m 5,1 km/h (1 Bft)
01.02.2013 05:58 7,3 C 6,2 C 90 % 0 lf 1008,4 hPa 0,0 l/m 0 min 0,0 UV-I 0 W/m 12,9 km/h (3 Bft)
01.02.2013 06:00 7,3 C 6,2 C 90 % 0 lf 1008,4 hPa 0,0 l/m 0 min 0,0 UV-I 0 W/m 15,4 km/h (3 Bft)
01.02.2013 06:02 7,3 C 6,2 C 90 % 0 lf 1008,3 hPa 0,0 l/m 0 min 0,0 UV-I 0 W/m 12,9 km/h (3 Bft)
01.02.2013 06:04 7,3 C 6,2 C 90 % 0 lf 1008,3 hPa 0,0 l/m 0 min 0,0 UV-I 0 W/m 7,7 km/h (2 Bft)
01.02.2013 06:06 7,3 C 6,2 C 90 % 0 lf 1008,3 hPa 0,0 l/m 0 min 0,0 UV-I 0 W/m 12,9 km/h (3 Bft)
01.02.2013 06:08 7,3 C 6,2 C 90 % 0 lf 1008,3 hPa 0,0 l/m 0 min 0,0 UV-I 0 W/m 23,2 km/h (4 Bft)
01.02.2013 06:10 7,3 C 6,2 C 90 % 0 lf 1008,2 hPa 0,0 l/m 0 min 0,0 UV-I 0 W/m 20,6 km/h (4 Bft)
01.02.2013 06:12 7,3 C 6,2 C 90 % 0 lf 1008,0 hPa 0,0 l/m 0 min 0,0 UV-I 0 W/m 18,0 km/h (3 Bft)
01.02.2013 06:14 7,3 C 6,2 C 90 % 0 lf 1008,0 hPa 0,0 l/m 0 min 0,0 UV-I 0 W/m 7,7 km/h (2 Bft)
01.02.2013 06:16 7,3 C 6,2 C 90 % 0 lf 1008,0 hPa 0,0 l/m 0 min 0,0 UV-I 0 W/m 12,9 km/h (3 Bft)
01.02.2013 06:18 7,3 C 6,2 C 90 % 0 lf 1007,9 hPa 0,0 l/m 0 min 0,0 UV-I 0 W/m 20,6 km/h (4 Bft)
01.02.2013 06:20 7,3 C 6,2 C 90 % 0 lf 1008,0 hPa 0,0 l/m 0 min 0,0 UV-I 0 W/m 15,4 km/h (3 Bft)
01.02.2013 06:22 7,3 C 6,2 C 90 % 0 lf 1008,0 hPa 0,0 l/m 0 min 0,0 UV-I 0 W/m 10,3 km/h (2 Bft)
01.02.2013 06:24 7,3 C 6,2 C 90 % 0 lf 1007,9 hPa 0,0 l/m 0 min 0,0 UV-I 0 W/m 25,7 km/h (4 Bft)
01.02.2013 06:26 7,3 C 6,2 C 90 % 0 lf 1007,9 hPa 0,0 l/m 0 min 0,0 UV-I 0 W/m 18,0 km/h (3 Bft)
01.02.2013 06:28 7,3 C 6,2 C 90 % 0 lf 1007,9 hPa 0,0 l/m 0 min 0,0 UV-I 0 W/m 15,4 km/h (3 Bft)
01.02.2013 06:30 7,3 C 6,2 C 90 % 0 lf 1007,8 hPa 0,0 l/m 0 min 0,0 UV-I 0 W/m 10,3 km/h (2 Bft)
01.02.2013 06:32 7,3 C 6,2 C 90 % 0 lf 1007,8 hPa 0,0 l/m 0 min 0,0 UV-I 0 W/m 12,9 km/h (3 Bft)
01.02.2013 06:34 7,3 C 6,2 C 90 % 0 lf 1007,7 hPa 0,0 l/m 0 min 0,0 UV-I 0 W/m 12,9 km/h (3 Bft)
01.02.2013 06:36 7,3 C 5,7 C 90 % 0 lf 1007,7 hPa 0,0 l/m 0 min 0,0 UV-I 0 W/m 10,3 km/h (2 Bft)
01.02.2013 06:38 7,3 C 6,2 C 90 % 0 lf 1007,7 hPa 0,0 l/m 0 min 0,0 UV-I 0 W/m 12,9 km/h (3 Bft)
01.02.2013 06:40 7,3 C 6,2 C 90 % 0 lf 1007,7 hPa 0,0 l/m 0 min 0,0 UV-I 0 W/m 12,9 km/h (3 Bft)
01.02.2013 06:42 7,3 C 6,2 C 90 % 0 lf 1007,7 hPa 0,0 l/m 0 min 0,0 UV-I 0 W/m 15,4 km/h (3 Bft)
01.02.2013 06:44 7,3 C 6,2 C 90 % 0 lf 1007,6 hPa 0,0 l/m 0 min 0,0 UV-I 0 W/m 18,0 km/h (3 Bft)
01.02.2013 06:46 7,3 C 6,2 C 89 % 0 lf 1007,5 hPa 0,0 l/m 0 min 0,0 UV-I 0 W/m 12,9 km/h (3 Bft)
01.02.2013 06:48 7,3 C 6,2 C 89 % 0 lf 1007,4 hPa 0,0 l/m 0 min 0,0 UV-I 0 W/m 7,7 km/h (2 Bft)
01.02.2013 06:50 7,3 C 6,2 C 89 % 0 lf 1007,4 hPa 0,0 l/m 0 min 0,0 UV-I 0 W/m 18,0 km/h (3 Bft)
01.02.2013 06:52 7,3 C 6,2 C 90 % 0 lf 1007,5 hPa 0,0 l/m 0 min 0,0 UV-I 0 W/m 20,6 km/h (4 Bft)
01.02.2013 06:54 7,3 C 6,2 C 90 % 0 lf 1007,4 hPa 0,0 l/m 0 min 0,0 UV-I 0 W/m 23,2 km/h (4 Bft)
01.02.2013 06:56 7,3 C 6,2 C 90 % 0 lf 1007,3 hPa 0,0 l/m 0 min 0,0 UV-I 0 W/m 18,0 km/h (3 Bft)
01.02.2013 06:58 7,3 C 6,2 C 90 % 0 lf 1007,3 hPa 0,0 l/m 0 min 0,0 UV-I 0 W/m 18,0 km/h (3 Bft)
01.02.2013 07:00 7,3 C 6,2 C 90 % 0 lf 1007,1 hPa 0,0 l/m 0 min 0,0 UV-I 0 W/m 12,9 km/h (3 Bft)
01.02.2013 07:02 7,3 C 6,2 C 90 % 0 lf 1007,2 hPa 0,0 l/m 0 min 0,0 UV-I 0 W/m 7,7 km/h (2 Bft)
01.02.2013 07:04 7,3 C 5,7 C 90 % 0 lf 1007,1 hPa 0,0 l/m 0 min 0,0 UV-I 0 W/m 5,1 km/h (1 Bft)
01.02.2013 07:06 7,3 C 5,7 C 90 % 0 lf 1007,1 hPa 0,0 l/m 0 min 0,0 UV-I 0 W/m 10,3 km/h (2 Bft)
01.02.2013 07:08 7,3 C 5,7 C 90 % 0 lf 1007,1 hPa 0,0 l/m 0 min 0,0 UV-I 0 W/m 10,3 km/h (2 Bft)
01.02.2013 07:10 7,3 C 5,7 C 90 % 0 lf 1007,0 hPa 0,0 l/m 0 min 0,0 UV-I 0 W/m 10,3 km/h (2 Bft)
01.02.2013 07:12 7,3 C 5,7 C 90 % 0 lf 1006,9 hPa 0,0 l/m 0 min 0,0 UV-I 0 W/m 7,7 km/h (2 Bft)
01.02.2013 07:14 7,3 C 5,7 C 90 % 0 lf 1006,9 hPa 0,0 l/m 0 min 0,0 UV-I 0 W/m 5,1 km/h (1 Bft)
01.02.2013 07:16 7,2 C 5,7 C 90 % 0 lf 1006,8 hPa 0,0 l/m 0 min 0,0 UV-I 0 W/m 15,4 km/h (3 Bft)
01.02.2013 07:18 7,2 C 5,7 C 90 % 0 lf 1006,7 hPa 0,0 l/m 0 min 0,0 UV-I 0 W/m 12,9 km/h (3 Bft)
01.02.2013 07:20 7,2 C 5,7 C 90 % 0 lf 1006,8 hPa 0,0 l/m 0 min 0,0 UV-I 0 W/m 18,0 km/h (3 Bft)
01.02.2013 07:22 7,2 C 5,7 C 90 % 0 lf 1006,7 hPa 0,0 l/m 0 min 0,0 UV-I 0 W/m 12,9 km/h (3 Bft)
01.02.2013 07:24 7,2 C 5,7 C 90 % 0 lf 1006,7 hPa 0,0 l/m 0 min 0,0 UV-I 0 W/m 12,9 km/h (3 Bft)
01.02.2013 07:26 7,2 C 5,7 C 90 % 0 lf 1006,7 hPa 0,0 l/m 0 min 0,0 UV-I 0 W/m 12,9 km/h (3 Bft)
01.02.2013 07:28 7,2 C 5,7 C 90 % 0 lf 1006,6 hPa 0,0 l/m 0 min 0,0 UV-I 0 W/m 12,9 km/h (3 Bft)
01.02.2013 07:30 7,2 C 6,2 C 90 % 0 lf 1006,6 hPa 0,0 l/m 0 min 0,0 UV-I 0 W/m 15,4 km/h (3 Bft)
01.02.2013 07:32 7,2 C 6,2 C 90 % 0 lf 1006,6 hPa 0,0 l/m 0 min 0,0 UV-I 0 W/m 12,9 km/h (3 Bft)
01.02.2013 07:34 7,2 C 6,2 C 90 % 0 lf 1006,6 hPa 0,0 l/m 0 min 0,0 UV-I 0 W/m 10,3 km/h (2 Bft)
01.02.2013 07:36 7,2 C 5,7 C 90 % 0 lf 1006,7 hPa 0,0 l/m 0 min 0,0 UV-I 0 W/m 15,4 km/h (3 Bft)
01.02.2013 07:38 7,2 C 6,2 C 90 % 0 lf 1006,4 hPa 0,0 l/m 0 min 0,0 UV-I 0 W/m 12,9 km/h (3 Bft)
01.02.2013 07:40 7,2 C 6,2 C 90 % 0 lf 1006,3 hPa 0,0 l/m 0 min 0,0 UV-I 0 W/m 18,0 km/h (3 Bft)
01.02.2013 07:42 7,2 C 6,2 C 90 % 0 lf 1006,2 hPa 0,0 l/m 0 min 0,0 UV-I 0 W/m 12,9 km/h (3 Bft)
01.02.2013 07:44 7,2 C 6,2 C 90 % 0 lf 1006,2 hPa 0,0 l/m 0 min 0,0 UV-I 0 W/m 10,3 km/h (2 Bft)
01.02.2013 07:46 7,2 C 5,7 C 90 % 0 lf 1006,2 hPa 0,0 l/m 0 min 0,0 UV-I 0 W/m 12,9 km/h (3 Bft)
01.02.2013 07:48 7,2 C 5,7 C 90 % 0 lf 1006,3 hPa 0,0 l/m 0 min 0,0 UV-I 0 W/m 7,7 km/h (2 Bft)
01.02.2013 07:50 7,2 C 5,7 C 90 % 0 lf 1006,2 hPa 0,0 l/m 0 min 0,0 UV-I 0 W/m 7,7 km/h (2 Bft)
01.02.2013 07:52 7,2 C 5,7 C 90 % 0 lf 1006,1 hPa 0,0 l/m 0 min 0,0 UV-I 0 W/m 12,9 km/h (3 Bft)
01.02.2013 07:54 7,2 C 5,7 C 90 % 0 lf 1006,2 hPa 0,0 l/m 0 min 0,0 UV-I 0 W/m 10,3 km/h (2 Bft)
01.02.2013 07:56 7,2 C 5,7 C 90 % 0 lf 1006,2 hPa 0,0 l/m 0 min 0,0 UV-I 0 W/m 5,1 km/h (1 Bft)
01.02.2013 07:58 7,2 C 5,7 C 90 % 0 lf 1006,2 hPa 0,0 l/m 0 min 0,0 UV-I 0 W/m 12,9 km/h (3 Bft)
01.02.2013 08:00 7,2 C 5,7 C 90 % 0 lf 1006,1 hPa 0,0 l/m 0 min 0,0 UV-I 0 W/m 2,6 km/h (1 Bft)
01.02.2013 08:02 7,2 C 5,7 C 90 % 0 lf 1005,9 hPa 0,0 l/m 0 min 0,0 UV-I 0 W/m 10,3 km/h (2 Bft)
01.02.2013 08:04 7,2 C 5,7 C 90 % 0 lf 1005,9 hPa 0,0 l/m 0 min 0,0 UV-I 0 W/m 12,9 km/h (3 Bft)
01.02.2013 08:06 7,2 C 5,7 C 90 % 0 lf 1005,9 hPa 0,0 l/m 0 min 0,0 UV-I 0 W/m 7,7 km/h (2 Bft)
01.02.2013 08:08 7,2 C 5,7 C 90 % 0 lf 1005,9 hPa 0,0 l/m 0 min 0,0 UV-I 0 W/m 7,7 km/h (2 Bft)
01.02.2013 08:10 7,2 C 5,7 C 90 % 0 lf 1005,7 hPa 0,0 l/m 0 min 0,0 UV-I 0 W/m 7,7 km/h (2 Bft)
01.02.2013 08:12 7,2 C 5,7 C 90 % 0 lf 1005,7 hPa 0,0 l/m 0 min 0,0 UV-I 0 W/m 18,0 km/h (3 Bft)
01.02.2013 08:14 7,2 C 5,7 C 90 % 0 lf 1005,6 hPa 0,0 l/m 0 min 0,0 UV-I 0 W/m 12,9 km/h (3 Bft)
01.02.2013 08:16 7,2 C 5,7 C 91 % 0 lf 1005,7 hPa 0,0 l/m 0 min 0,0 UV-I 0 W/m 10,3 km/h (2 Bft)
01.02.2013 08:18 7,2 C 5,7 C 91 % 0 lf 1005,6 hPa 0,0 l/m 0 min 0,0 UV-I 0 W/m 10,3 km/h (2 Bft)
01.02.2013 08:20 7,2 C 5,7 C 91 % 0 lf 1005,6 hPa 0,0 l/m 0 min 0,0 UV-I 0 W/m 10,3 km/h (2 Bft)
01.02.2013 08:22 7,2 C 5,7 C 91 % 0 lf 1005,5 hPa 0,0 l/m 0 min 0,0 UV-I 0 W/m 7,7 km/h (2 Bft)
01.02.2013 08:24 7,2 C 5,7 C 91 % 0 lf 1005,5 hPa 0,0 l/m 0 min 0,0 UV-I 0 W/m 7,7 km/h (2 Bft)
01.02.2013 08:26 7,2 C 5,7 C 91 % 0 lf 1005,5 hPa 0,0 l/m 0 min 0,0 UV-I 0 W/m 12,9 km/h (3 Bft)
01.02.2013 08:28 7,2 C 5,7 C 91 % 0 lf 1005,5 hPa 0,0 l/m 0 min 0,0 UV-I 0 W/m 12,9 km/h (3 Bft)
01.02.2013 08:30 7,2 C 5,7 C 91 % 0 lf 1005,4 hPa 0,0 l/m 0 min 0,0 UV-I 5 W/m 5,1 km/h (1 Bft)
01.02.2013 08:32 7,2 C 5,7 C 91 % 0 lf 1005,3 hPa 0,0 l/m 0 min 0,0 UV-I 5 W/m 20,6 km/h (4 Bft)
01.02.2013 08:34 7,2 C 5,7 C 91 % 0 lf 1005,3 hPa 0,0 l/m 0 min 0,0 UV-I 5 W/m 5,1 km/h (1 Bft)
01.02.2013 08:36 7,2 C 5,7 C 91 % 0 lf 1005,3 hPa 0,0 l/m 0 min 0,0 UV-I 5 W/m 7,7 km/h (2 Bft)
01.02.2013 08:38 7,2 C 5,7 C 91 % 0 lf 1005,2 hPa 0,0 l/m 0 min 0,0 UV-I 7 W/m 2,6 km/h (1 Bft)
01.02.2013 08:40 7,2 C 5,7 C 91 % 0 lf 1005,1 hPa 0,0 l/m 0 min 0,0 UV-I 7 W/m 7,7 km/h (2 Bft)
01.02.2013 08:42 7,2 C 5,7 C 91 % 0 lf 1005,1 hPa 0,0 l/m 0 min 0,0 UV-I 9 W/m 5,1 km/h (1 Bft)
01.02.2013 08:44 7,2 C 5,7 C 91 % 0 lf 1005,1 hPa 0,0 l/m 0 min 0,0 UV-I 9 W/m 10,3 km/h (2 Bft)
01.02.2013 08:46 7,2 C 5,7 C 91 % 0 lf 1005,1 hPa 0,0 l/m 0 min 0,0 UV-I 9 W/m 12,9 km/h (3 Bft)
01.02.2013 08:48 7,2 C 5,7 C 91 % 0 lf 1005,2 hPa 0,0 l/m 0 min 0,0 UV-I 9 W/m 12,9 km/h (3 Bft)
01.02.2013 08:50 7,2 C 5,7 C 91 % 0 lf 1005,1 hPa 0,0 l/m 0 min 0,0 UV-I 9 W/m 10,3 km/h (2 Bft)
01.02.2013 08:52 7,2 C 5,7 C 91 % 0 lf 1005,1 hPa 0,0 l/m 0 min 0,0 UV-I 11 W/m 18,0 km/h (3 Bft)
01.02.2013 08:54 7,2 C 6,2 C 91 % 0 lf 1005,0 hPa 0,0 l/m 0 min 0,0 UV-I 11 W/m 7,7 km/h (2 Bft)
01.02.2013 08:56 7,2 C 5,7 C 91 % 0 lf 1005,0 hPa 0,0 l/m 0 min 0,0 UV-I 11 W/m 12,9 km/h (3 Bft)
01.02.2013 08:58 7,2 C 6,2 C 91 % 0 lf 1005,0 hPa 0,0 l/m 0 min 0,0 UV-I 11 W/m 7,7 km/h (2 Bft)
01.02.2013 09:00 7,2 C 6,2 C 90 % 0 lf 1005,0 hPa 0,0 l/m 0 min 0,0 UV-I 12 W/m 10,3 km/h (2 Bft)
01.02.2013 09:02 7,2 C 5,7 C 90 % 0 lf 1004,9 hPa 0,0 l/m 0 min 0,0 UV-I 12 W/m 5,1 km/h (1 Bft)
01.02.2013 09:04 7,2 C 6,2 C 90 % 0 lf 1004,9 hPa 0,0 l/m 0 min 0,0 UV-I 12 W/m 7,7 km/h (2 Bft)
01.02.2013 09:06 7,2 C 6,2 C 90 % 0 lf 1004,9 hPa 0,0 l/m 0 min 0,0 UV-I 14 W/m 2,6 km/h (1 Bft)
01.02.2013 09:08 7,2 C 6,2 C 90 % 0 lf 1004,9 hPa 0,0 l/m 0 min 0,0 UV-I 14 W/m 5,1 km/h (1 Bft)
01.02.2013 09:10 7,2 C 6,2 C 90 % 0 lf 1004,9 hPa 0,0 l/m 0 min 0,0 UV-I 14 W/m 10,3 km/h (2 Bft)
01.02.2013 09:12 7,2 C 6,2 C 90 % 0 lf 1005,0 hPa 0,0 l/m 0 min 0,0 UV-I 14 W/m 10,3 km/h (2 Bft)
01.02.2013 09:14 7,2 C 6,2 C 90 % 0 lf 1004,9 hPa 0,0 l/m 0 min 0,0 UV-I 14 W/m 18,0 km/h (3 Bft)
01.02.2013 09:16 7,2 C 6,2 C 89 % 0 lf 1004,9 hPa 0,0 l/m 0 min 0,0 UV-I 16 W/m 15,4 km/h (3 Bft)
01.02.2013 09:18 7,2 C 6,2 C 89 % 0 lf 1004,8 hPa 0,0 l/m 0 min 0,0 UV-I 16 W/m 15,4 km/h (3 Bft)
01.02.2013 09:20 7,2 C 6,2 C 89 % 1 lf 1004,8 hPa 0,0 l/m 0 min 0,0 UV-I 18 W/m 10,3 km/h (2 Bft)
01.02.2013 09:22 7,2 C 6,2 C 88 % 1 lf 1004,8 hPa 0,0 l/m 0 min 0,0 UV-I 18 W/m 18,0 km/h (3 Bft)
01.02.2013 09:24 7,2 C 6,2 C 88 % 0 lf 1004,8 hPa 0,0 l/m 0 min 0,0 UV-I 19 W/m 12,9 km/h (3 Bft)
01.02.2013 09:26 7,2 C 6,2 C 87 % 9 lf 1004,8 hPa 0,0 l/m 0 min 0,0 UV-I 19 W/m 20,6 km/h (4 Bft)
01.02.2013 09:28 7,2 C 6,2 C 86 % 6 lf 1004,8 hPa 0,0 l/m 0 min 0,0 UV-I 18 W/m 18,0 km/h (3 Bft)
01.02.2013 09:30 7,2 C 6,2 C 86 % 8 lf 1004,7 hPa 0,0 l/m 0 min 0,0 UV-I 16 W/m 20,6 km/h (4 Bft)
01.02.2013 09:32 7,2 C 5,7 C 86 % 10 lf 1004,7 hPa 0,0 l/m 0 min 0,0 UV-I 14 W/m 12,9 km/h (3 Bft)
01.02.2013 09:34 7,2 C 5,7 C 86 % 12 lf 1004,6 hPa 0,0 l/m 0 min 0,0 UV-I 14 W/m 5,1 km/h (1 Bft)
01.02.2013 09:36 7,2 C 5,7 C 86 % 13 lf 1004,6 hPa 0,0 l/m 0 min 0,0 UV-I 19 W/m 10,3 km/h (2 Bft)
01.02.2013 09:38 7,2 C 5,7 C 86 % 10 lf 1004,6 hPa 0,0 l/m 0 min 0,0 UV-I 19 W/m 12,9 km/h (3 Bft)
01.02.2013 09:40 7,2 C 5,7 C 86 % 6 lf 1004,6 hPa 0,0 l/m 0 min 0,0 UV-I 19 W/m 15,4 km/h (3 Bft)
01.02.2013 09:42 7,2 C 5,7 C 86 % 3 lf 1004,5 hPa 0,0 l/m 0 min 0,0 UV-I 21 W/m 15,4 km/h (3 Bft)
01.02.2013 09:44 7,2 C 5,7 C 86 % 3 lf 1004,5 hPa 0,0 l/m 0 min 0,0 UV-I 23 W/m 7,7 km/h (2 Bft)
01.02.2013 09:46 7,2 C 5,7 C 86 % 3 lf 1004,5 hPa 0,0 l/m 0 min 0,0 UV-I 23 W/m 18,0 km/h (3 Bft)
01.02.2013 09:48 7,2 C 5,7 C 86 % 7 lf 1004,5 hPa 0,0 l/m 0 min 0,0 UV-I 23 W/m 15,4 km/h (3 Bft)
01.02.2013 09:50 7,1 C 5,7 C 86 % 11 lf 1004,5 hPa 0,0 l/m 0 min 0,0 UV-I 23 W/m 12,9 km/h (3 Bft)
01.02.2013 09:52 7,1 C 5,7 C 86 % 14 lf 1004,5 hPa 0,0 l/m 0 min 0,0 UV-I 25 W/m 7,7 km/h (2 Bft)
01.02.2013 09:54 7,1 C 5,1 C 86 % 14 lf 1004,4 hPa 0,0 l/m 0 min 0,0 UV-I 25 W/m 10,3 km/h (2 Bft)
01.02.2013 09:56 7,1 C 5,1 C 86 % 14 lf 1004,3 hPa 0,0 l/m 0 min 0,0 UV-I 25 W/m 20,6 km/h (4 Bft)
01.02.2013 09:58 7,1 C 5,1 C 87 % 15 lf 1004,4 hPa 0,0 l/m 0 min 0,0 UV-I 26 W/m 7,7 km/h (2 Bft)
01.02.2013 10:00 7,1 C 5,1 C 87 % 15 lf 1004,2 hPa 0,0 l/m 0 min 0,0 UV-I 28 W/m 15,4 km/h (3 Bft)
01.02.2013 10:02 7,0 C 5,1 C 87 % 15 lf 1004,3 hPa 0,0 l/m 0 min 0,0 UV-I 30 W/m 7,7 km/h (2 Bft)
01.02.2013 10:04 7,0 C 5,1 C 87 % 15 lf 1004,3 hPa 0,0 l/m 0 min 0,0 UV-I 30 W/m 25,7 km/h (4 Bft)
01.02.2013 10:06 6,9 C 5,1 C 87 % 15 lf 1004,4 hPa 0,0 l/m 0 min 0,0 UV-I 32 W/m 12,9 km/h (3 Bft)
01.02.2013 10:08 6,9 C 4,6 C 87 % 15 lf 1004,3 hPa 0,0 l/m 0 min 0,0 UV-I 30 W/m 15,4 km/h (3 Bft)
01.02.2013 10:10 6,9 C 5,1 C 88 % 15 lf 1004,3 hPa 0,0 l/m 0 min 0,0 UV-I 30 W/m 10,3 km/h (2 Bft)
01.02.2013 10:12 6,9 C 5,1 C 88 % 15 lf 1004,2 hPa 0,0 l/m 0 min 0,0 UV-I 30 W/m 5,1 km/h (1 Bft)
01.02.2013 10:14 6,8 C 4,6 C 88 % 15 lf 1004,3 hPa 0,0 l/m 0 min 0,0 UV-I 32 W/m 12,9 km/h (3 Bft)
01.02.2013 10:16 6,8 C 4,6 C 88 % 14 lf 1004,3 hPa 0,0 l/m 0 min 0,0 UV-I 32 W/m 15,4 km/h (3 Bft)
01.02.2013 10:18 6,8 C 4,6 C 88 % 13 lf 1004,3 hPa 0,0 l/m 0 min 0,0 UV-I 32 W/m 12,9 km/h (3 Bft)
01.02.2013 10:20 6,7 C 4,6 C 88 % 12 lf 1004,2 hPa 0,0 l/m 0 min 0,0 UV-I 33 W/m 10,3 km/h (2 Bft)
01.02.2013 10:22 6,7 C 4,6 C 88 % 11 lf 1004,2 hPa 0,0 l/m 0 min 0,0 UV-I 35 W/m 10,3 km/h (2 Bft)
01.02.2013 10:24 6,7 C 4,6 C 88 % 8 lf 1004,2 hPa 0,0 l/m 0 min 0,0 UV-I 37 W/m 12,9 km/h (3 Bft)
01.02.2013 10:26 6,7 C 4,6 C 88 % 5 lf 1004,2 hPa 0,0 l/m 0 min 0,0 UV-I 37 W/m 10,3 km/h (2 Bft)
01.02.2013 10:28 6,6 C 4,6 C 88 % 10 lf 1004,1 hPa 0,0 l/m 0 min 0,0 UV-I 37 W/m 15,4 km/h (3 Bft)
01.02.2013 10:30 6,6 C 4,6 C 88 % 6 lf 1004,1 hPa 0,0 l/m 0 min 0,0 UV-I 37 W/m 12,9 km/h (3 Bft)
01.02.2013 10:32 6,6 C 4,6 C 88 % 9 lf 1004,1 hPa 0,0 l/m 0 min 0,0 UV-I 39 W/m 10,3 km/h (2 Bft)
01.02.2013 10:34 6,6 C 4,6 C 88 % 15 lf 1004,1 hPa 0,0 l/m 0 min 0,0 UV-I 40 W/m 20,6 km/h (4 Bft)
01.02.2013 10:36 6,5 C 4,6 C 89 % 15 lf 1004,0 hPa 0,0 l/m 0 min 0,0 UV-I 40 W/m 12,9 km/h (3 Bft)
01.02.2013 10:38 6,5 C 4,6 C 89 % 15 lf 1004,0 hPa 0,0 l/m 0 min 0,0 UV-I 40 W/m 10,3 km/h (2 Bft)
01.02.2013 10:40 6,5 C 4,6 C 89 % 15 lf 1004,0 hPa 0,0 l/m 0 min 0,0 UV-I 40 W/m 5,1 km/h (1 Bft)
01.02.2013 10:42 6,4 C 4,6 C 89 % 15 lf 1003,9 hPa 0,0 l/m 0 min 0,0 UV-I 40 W/m 12,9 km/h (3 Bft)
01.02.2013 10:44 6,4 C 4,6 C 89 % 15 lf 1003,9 hPa 0,0 l/m 0 min 0,0 UV-I 44 W/m 7,7 km/h (2 Bft)
01.02.2013 10:46 6,4 C 4,6 C 89 % 15 lf 1003,9 hPa 0,0 l/m 0 min 0,0 UV-I 47 W/m 7,7 km/h (2 Bft)
01.02.2013 10:48 6,4 C 4,6 C 89 % 15 lf 1003,8 hPa 0,0 l/m 0 min 0,0 UV-I 49 W/m 12,9 km/h (3 Bft)
01.02.2013 10:50 6,3 C 4,6 C 90 % 15 lf 1003,7 hPa 0,0 l/m 0 min 0,0 UV-I 49 W/m 10,3 km/h (2 Bft)
01.02.2013 10:52 6,3 C 4,6 C 90 % 15 lf 1003,7 hPa 0,0 l/m 0 min 0,0 UV-I 49 W/m 7,7 km/h (2 Bft)
01.02.2013 10:54 6,3 C 4,6 C 90 % 15 lf 1003,6 hPa 0,0 l/m 0 min 0,0 UV-I 51 W/m 12,9 km/h (3 Bft)
01.02.2013 10:56 6,3 C 4,6 C 90 % 15 lf 1003,6 hPa 0,0 l/m 0 min 0,0 UV-I 54 W/m 10,3 km/h (2 Bft)
01.02.2013 10:58 6,3 C 4,6 C 90 % 15 lf 1003,5 hPa 0,2 l/m 0 min 0,0 UV-I 60 W/m 12,9 km/h (3 Bft)
01.02.2013 11:00 6,3 C 4,6 C 90 % 15 lf 1003,5 hPa 0,0 l/m 0 min 0,0 UV-I 60 W/m 7,7 km/h (2 Bft)
01.02.2013 11:02 6,3 C 4,6 C 91 % 15 lf 1003,4 hPa 0,0 l/m 0 min 0,0 UV-I 56 W/m 10,3 km/h (2 Bft)
01.02.2013 11:04 6,2 C 4,6 C 91 % 15 lf 1003,4 hPa 0,0 l/m 0 min 0,0 UV-I 53 W/m 7,7 km/h (2 Bft)
01.02.2013 11:06 6,2 C 4,6 C 91 % 15 lf 1003,4 hPa 0,0 l/m 0 min 0,0 UV-I 53 W/m 5,1 km/h (1 Bft)
01.02.2013 11:08 6,2 C 4,6 C 91 % 15 lf 1003,3 hPa 0,0 l/m 0 min 0,0 UV-I 60 W/m 10,3 km/h (2 Bft)
01.02.2013 11:10 6,2 C 4,6 C 92 % 15 lf 1003,3 hPa 0,0 l/m 0 min 0,0 UV-I 69 W/m 10,3 km/h (2 Bft)
01.02.2013 11:12 6,2 C 4,6 C 96 % 15 lf 1003,1 hPa 0,0 l/m 0 min 0,0 UV-I 69 W/m 7,7 km/h (2 Bft)
01.02.2013 11:14 6,2 C 4,6 C 92 % 15 lf 1003,1 hPa 0,0 l/m 0 min 0,0 UV-I 67 W/m 12,9 km/h (3 Bft)
01.02.2013 11:16 6,2 C 4,6 C 92 % 15 lf 1003,1 hPa 0,0 l/m 0 min 0,0 UV-I 63 W/m 10,3 km/h (2 Bft)
01.02.2013 11:18 6,1 C 4,6 C 92 % 15 lf 1003,0 hPa 0,0 l/m 0 min 0,0 UV-I 62 W/m 10,3 km/h (2 Bft)
01.02.2013 11:20 6,1 C 4,6 C 92 % 15 lf 1003,0 hPa 0,0 l/m 0 min 0,0 UV-I 60 W/m 5,1 km/h (1 Bft)
01.02.2013 11:22 6,1 C 4,6 C 92 % 15 lf 1002,7 hPa 0,0 l/m 0 min 0,0 UV-I 65 W/m 15,4 km/h (3 Bft)
01.02.2013 11:24 6,0 C 4,6 C 92 % 15 lf 1002,8 hPa 0,0 l/m 0 min 0,0 UV-I 65 W/m 10,3 km/h (2 Bft)
01.02.2013 11:26 6,0 C 4,6 C 92 % 15 lf 1002,7 hPa 0,0 l/m 0 min 0,0 UV-I 65 W/m 18,0 km/h (3 Bft)
01.02.2013 11:28 5,9 C 4,6 C 92 % 15 lf 1002,6 hPa 0,0 l/m 0 min 0,0 UV-I 63 W/m 12,9 km/h (3 Bft)
01.02.2013 11:30 5,9 C 4,0 C 92 % 15 lf 1002,6 hPa 0,0 l/m 0 min 0,0 UV-I 63 W/m 7,7 km/h (2 Bft)
01.02.2013 11:32 5,9 C 4,0 C 92 % 15 lf 1002,7 hPa 0,0 l/m 0 min 0,0 UV-I 62 W/m 18,0 km/h (3 Bft)
01.02.2013 11:34 5,8 C 4,0 C 92 % 15 lf 1002,6 hPa 0,0 l/m 0 min 0,0 UV-I 58 W/m 7,7 km/h (2 Bft)
01.02.2013 11:36 5,8 C 4,0 C 92 % 15 lf 1002,6 hPa 0,0 l/m 0 min 0,0 UV-I 56 W/m 10,3 km/h (2 Bft)
01.02.2013 11:38 5,8 C 4,0 C 91 % 15 lf 1002,6 hPa 0,0 l/m 0 min 0,0 UV-I 58 W/m 20,6 km/h (4 Bft)
01.02.2013 11:40 5,8 C 4,0 C 92 % 15 lf 1002,5 hPa 0,0 l/m 0 min 0,0 UV-I 63 W/m 5,1 km/h (1 Bft)
01.02.2013 11:42 5,7 C 4,0 C 92 % 15 lf 1002,3 hPa 0,0 l/m 0 min 0,0 UV-I 63 W/m 12,9 km/h (3 Bft)
01.02.2013 11:44 5,7 C 4,0 C 92 % 15 lf 1002,3 hPa 0,0 l/m 0 min 0,0 UV-I 62 W/m 7,7 km/h (2 Bft)
01.02.2013 11:46 5,7 C 4,0 C 92 % 15 lf 1002,3 hPa 0,0 l/m 0 min 0,0 UV-I 63 W/m 5,1 km/h (1 Bft)
01.02.2013 11:48 5,8 C 4,6 C 92 % 15 lf 1002,2 hPa 0,0 l/m 0 min 0,0 UV-I 67 W/m 7,7 km/h (2 Bft)
01.02.2013 11:50 5,7 C 4,0 C 92 % 15 lf 1002,2 hPa 0,0 l/m 0 min 0,0 UV-I 72 W/m 12,9 km/h (3 Bft)
01.02.2013 11:52 5,7 C 4,0 C 92 % 15 lf 1002,3 hPa 0,0 l/m 0 min 0,0 UV-I 74 W/m 12,9 km/h (3 Bft)
01.02.2013 11:54 5,7 C 4,0 C 92 % 15 lf 1002,2 hPa 0,0 l/m 0 min 0,0 UV-I 81 W/m 10,3 km/h (2 Bft)
01.02.2013 11:56 5,7 C 4,6 C 92 % 15 lf 1002,1 hPa 0,0 l/m 0 min 0,0 UV-I 90 W/m 10,3 km/h (2 Bft)
01.02.2013 11:58 5,7 C 4,6 C 92 % 15 lf 1002,0 hPa 0,0 l/m 0 min 0,0 UV-I 81 W/m 5,1 km/h (1 Bft)
01.02.2013 12:00 5,7 C 4,6 C 93 % 15 lf 1002,0 hPa 0,0 l/m 0 min 0,0 UV-I 67 W/m 2,6 km/h (1 Bft)
01.02.2013 12:02 5,7 C 4,6 C 93 % 15 lf 1002,0 hPa 0,0 l/m 0 min 0,0 UV-I 58 W/m 7,7 km/h (2 Bft)
01.02.2013 12:04 5,7 C 4,0 C 93 % 15 lf 1002,0 hPa 0,0 l/m 0 min 0,0 UV-I 56 W/m 12,9 km/h (3 Bft)
01.02.2013 12:06 5,7 C 4,0 C 93 % 15 lf 1002,0 hPa 0,0 l/m 0 min 0,0 UV-I 56 W/m 7,7 km/h (2 Bft)
01.02.2013 12:08 5,7 C 4,0 C 92 % 15 lf 1001,8 hPa 0,0 l/m 0 min 0,0 UV-I 53 W/m 15,4 km/h (3 Bft)
01.02.2013 12:10 5,6 C 4,0 C 92 % 15 lf 1001,6 hPa 0,0 l/m 0 min 0,0 UV-I 53 W/m 7,7 km/h (2 Bft)
01.02.2013 12:12 5,6 C 4,0 C 93 % 15 lf 1001,5 hPa 0,2 l/m 0 min 0,0 UV-I 53 W/m 0,0 km/h (0 Bft)
01.02.2013 12:14 5,6 C 4,0 C 93 % 15 lf 1001,5 hPa 0,0 l/m 0 min 0,0 UV-I 58 W/m 0,0 km/h (0 Bft)
01.02.2013 12:16 5,6 C 4,0 C 93 % 15 lf 1001,5 hPa 0,0 l/m 0 min 0,0 UV-I 65 W/m 7,7 km/h (2 Bft)
01.02.2013 12:18 5,6 C 4,0 C 93 % 15 lf 1001,3 hPa 0,0 l/m 0 min 0,0 UV-I 62 W/m 7,7 km/h (2 Bft)
01.02.2013 12:20 5,6 C 4,0 C 93 % 15 lf 1001,2 hPa 0,0 l/m 0 min 0,0 UV-I 49 W/m 10,3 km/h (2 Bft)
01.02.2013 12:22 5,6 C 4,0 C 93 % 15 lf 1001,3 hPa 0,0 l/m 0 min 0,0 UV-I 40 W/m 7,7 km/h (2 Bft)
01.02.2013 12:24 5,6 C 4,0 C 93 % 15 lf 1001,4 hPa 0,0 l/m 0 min 0,0 UV-I 40 W/m 5,1 km/h (1 Bft)
01.02.2013 12:26 5,6 C 4,0 C 93 % 15 lf 1001,3 hPa 0,0 l/m 0 min 0,0 UV-I 44 W/m 10,3 km/h (2 Bft)
01.02.2013 12:28 5,4 C 4,0 C 93 % 15 lf 1001,1 hPa 0,2 l/m 0 min 0,0 UV-I 44 W/m 10,3 km/h (2 Bft)
01.02.2013 12:30 5,4 C 4,0 C 93 % 15 lf 1001,1 hPa 0,0 l/m 0 min 0,0 UV-I 46 W/m 5,1 km/h (1 Bft)
01.02.2013 12:32 5,4 C 4,0 C 93 % 15 lf 1001,1 hPa 0,0 l/m 0 min 0,0 UV-I 44 W/m 12,9 km/h (3 Bft)
01.02.2013 12:34 5,4 C 4,0 C 93 % 15 lf 1001,1 hPa 0,0 l/m 0 min 0,0 UV-I 44 W/m 7,7 km/h (2 Bft)
01.02.2013 12:36 5,4 C 4,0 C 93 % 15 lf 1001,0 hPa 0,0 l/m 0 min 0,0 UV-I 42 W/m 2,6 km/h (1 Bft)
01.02.2013 12:38 5,4 C 4,0 C 93 % 15 lf 1001,0 hPa 0,0 l/m 0 min 0,0 UV-I 40 W/m 7,7 km/h (2 Bft)
01.02.2013 12:40 5,4 C 4,0 C 93 % 15 lf 1000,9 hPa 0,0 l/m 0 min 0,0 UV-I 42 W/m 7,7 km/h (2 Bft)
01.02.2013 12:42 5,4 C 4,0 C 94 % 15 lf 1000,9 hPa 0,0 l/m 0 min 0,0 UV-I 42 W/m 7,7 km/h (2 Bft)
01.02.2013 12:44 5,3 C 4,0 C 94 % 15 lf 1000,9 hPa 0,0 l/m 0 min 0,0 UV-I 46 W/m 12,9 km/h (3 Bft)
01.02.2013 12:46 5,3 C 4,0 C 94 % 15 lf 1000,7 hPa 0,0 l/m 0 min 0,0 UV-I 44 W/m 7,7 km/h (2 Bft)
01.02.2013 12:48 5,3 C 4,0 C 94 % 15 lf 1000,7 hPa 0,0 l/m 0 min 0,0 UV-I 46 W/m 7,7 km/h (2 Bft)
01.02.2013 12:50 5,3 C 4,0 C 94 % 15 lf 1000,6 hPa 0,0 l/m 0 min 0,0 UV-I 44 W/m 0,0 km/h (0 Bft)
01.02.2013 12:52 5,3 C 4,0 C 94 % 15 lf 1000,6 hPa 0,0 l/m 0 min 0,0 UV-I 44 W/m 2,6 km/h (1 Bft)
01.02.2013 12:54 5,3 C 4,0 C 94 % 15 lf 1000,6 hPa 0,0 l/m 0 min 0,0 UV-I 40 W/m 18,0 km/h (3 Bft)
01.02.2013 12:56 5,3 C 4,0 C 94 % 15 lf 1000,5 hPa 0,0 l/m 0 min 0,0 UV-I 35 W/m 5,1 km/h (1 Bft)
01.02.2013 12:58 5,3 C 4,0 C 94 % 15 lf 1000,5 hPa 0,0 l/m 0 min 0,0 UV-I 37 W/m 5,1 km/h (1 Bft)
01.02.2013 13:00 5,3 C 4,0 C 94 % 15 lf 1000,5 hPa 0,0 l/m 0 min 0,0 UV-I 35 W/m 2,6 km/h (1 Bft)
01.02.2013 13:02 5,3 C 4,0 C 95 % 14 lf 1000,4 hPa 0,0 l/m 0 min 0,0 UV-I 37 W/m 10,3 km/h (2 Bft)
01.02.2013 13:06 5,3 C 4,0 C 95 % 14 lf 1000,3 hPa 0,2 l/m 0 min 0,0 UV-I 33 W/m 10,3 km/h (2 Bft)
01.02.2013 13:08 5,3 C 4,0 C 95 % 14 lf 1000,2 hPa 0,0 l/m 0 min 0,0 UV-I 33 W/m 7,7 km/h (2 Bft)
01.02.2013 13:10 5,3 C 4,0 C 95 % 14 lf 1000,1 hPa 0,0 l/m 0 min 0,0 UV-I 37 W/m 7,7 km/h (2 Bft)
01.02.2013 13:12 5,3 C 4,0 C 95 % 14 lf 1000,1 hPa 0,0 l/m 0 min 0,0 UV-I 37 W/m 10,3 km/h (2 Bft)
01.02.2013 13:14 5,3 C 4,0 C 95 % 13 lf 1000,0 hPa 0,0 l/m 0 min 0,0 UV-I 37 W/m 15,4 km/h (3 Bft)
01.02.2013 13:16 5,3 C 4,0 C 95 % 12 lf 1000,0 hPa 0,0 l/m 0 min 0,0 UV-I 35 W/m 12,9 km/h (3 Bft)
01.02.2013 13:18 5,2 C 4,0 C 95 % 12 lf 999,9 hPa 0,2 l/m 0 min 0,0 UV-I 32 W/m 7,7 km/h (2 Bft)
01.02.2013 13:20 5,2 C 4,0 C 95 % 12 lf 999,8 hPa 0,0 l/m 0 min 0,0 UV-I 32 W/m 5,1 km/h (1 Bft)
01.02.2013 13:22 5,2 C 4,0 C 95 % 12 lf 999,8 hPa 0,0 l/m 0 min 0,0 UV-I 30 W/m 10,3 km/h (2 Bft)
01.02.2013 13:24 5,2 C 4,0 C 95 % 12 lf 999,8 hPa 0,0 l/m 0 min 0,0 UV-I 30 W/m 5,1 km/h (1 Bft)
01.02.2013 13:26 5,2 C 4,0 C 95 % 12 lf 999,7 hPa 0,0 l/m 0 min 0,0 UV-I 28 W/m 5,1 km/h (1 Bft)
01.02.2013 13:28 5,2 C 4,0 C 95 % 12 lf 999,6 hPa 0,2 l/m 0 min 0,0 UV-I 33 W/m 7,7 km/h (2 Bft)
01.02.2013 13:30 5,2 C 4,0 C 95 % 12 lf 999,6 hPa 0,0 l/m 0 min 0,0 UV-I 25 W/m 0,0 km/h (0 Bft)
01.02.2013 13:32 5,2 C 4,0 C 96 % 12 lf 999,5 hPa 0,0 l/m 0 min 0,0 UV-I 25 W/m 7,7 km/h (2 Bft)
01.02.2013 13:34 5,2 C 4,0 C 96 % 12 lf 999,4 hPa 0,0 l/m 0 min 0,0 UV-I 26 W/m 12,9 km/h (3 Bft)
01.02.2013 13:36 5,2 C 4,0 C 96 % 12 lf 999,4 hPa 0,2 l/m 0 min 0,0 UV-I 30 W/m 10,3 km/h (2 Bft)
01.02.2013 13:38 5,2 C 4,0 C 96 % 12 lf 999,3 hPa 0,0 l/m 0 min 0,0 UV-I 35 W/m 2,6 km/h (1 Bft)
01.02.2013 13:40 5,2 C 4,0 C 96 % 12 lf 999,2 hPa 0,0 l/m 0 min 0,0 UV-I 35 W/m 5,1 km/h (1 Bft)
01.02.2013 13:42 5,2 C 4,0 C 96 % 11 lf 999,1 hPa 0,0 l/m 0 min 0,0 UV-I 39 W/m 10,3 km/h (2 Bft)
01.02.2013 13:44 5,1 C 4,0 C 96 % 11 lf 999,0 hPa 0,0 l/m 0 min 0,0 UV-I 40 W/m 18,0 km/h (3 Bft)
01.02.2013 13:46 5,2 C 4,0 C 96 % 12 lf 999,0 hPa 0,2 l/m 0 min 0,0 UV-I 42 W/m 10,3 km/h (2 Bft)
01.02.2013 13:48 5,1 C 4,0 C 96 % 12 lf 999,0 hPa 0,0 l/m 0 min 0,0 UV-I 44 W/m 10,3 km/h (2 Bft)
01.02.2013 13:50 5,1 C 4,0 C 96 % 12 lf 998,9 hPa 0,0 l/m 0 min 0,0 UV-I 47 W/m 7,7 km/h (2 Bft)
01.02.2013 13:52 5,1 C 4,0 C 96 % 12 lf 998,8 hPa 0,0 l/m 0 min 0,0 UV-I 49 W/m 5,1 km/h (1 Bft)
01.02.2013 13:54 5,1 C 4,0 C 96 % 12 lf 998,8 hPa 0,0 l/m 0 min 0,0 UV-I 49 W/m 12,9 km/h (3 Bft)
01.02.2013 13:56 5,1 C 4,0 C 96 % 12 lf 998,7 hPa 0,0 l/m 0 min 0,0 UV-I 51 W/m 7,7 km/h (2 Bft)
01.02.2013 13:58 5,1 C 4,0 C 96 % 12 lf 998,6 hPa 0,0 l/m 0 min 0,0 UV-I 51 W/m 12,9 km/h (3 Bft)
01.02.2013 14:00 5,1 C 4,0 C 96 % 12 lf 998,5 hPa 0,0 l/m 0 min 0,0 UV-I 49 W/m 5,1 km/h (1 Bft)
01.02.2013 14:02 5,1 C 4,0 C 96 % 12 lf 998,4 hPa 0,2 l/m 0 min 0,0 UV-I 49 W/m 7,7 km/h (2 Bft)
01.02.2013 14:06 5,1 C 4,0 C 97 % 12 lf 998,4 hPa 0,0 l/m 0 min 0,0 UV-I 49 W/m 10,3 km/h (2 Bft)
01.02.2013 14:08 5,1 C 4,0 C 97 % 13 lf 998,2 hPa 0,0 l/m 0 min 0,0 UV-I 51 W/m 0,0 km/h (0 Bft)
01.02.2013 14:10 5,1 C 4,0 C 97 % 13 lf 998,2 hPa 0,0 l/m 0 min 0,0 UV-I 53 W/m 5,1 km/h (1 Bft)
01.02.2013 14:12 5,1 C 4,0 C 97 % 13 lf 998,2 hPa 0,0 l/m 0 min 0,0 UV-I 53 W/m 7,7 km/h (2 Bft)
01.02.2013 14:14 5,1 C 4,0 C 97 % 13 lf 998,0 hPa 0,0 l/m 0 min 0,0 UV-I 53 W/m 10,3 km/h (2 Bft)
01.02.2013 14:16 5,1 C 4,0 C 97 % 13 lf 997,9 hPa 0,0 l/m 0 min 0,0 UV-I 49 W/m 10,3 km/h (2 Bft)
01.02.2013 14:18 5,1 C 4,0 C 97 % 13 lf 997,7 hPa 0,0 l/m 0 min 0,0 UV-I 46 W/m 5,1 km/h (1 Bft)
01.02.2013 14:20 5,1 C 4,0 C 97 % 13 lf 997,7 hPa 0,0 l/m 0 min 0,0 UV-I 42 W/m 12,9 km/h (3 Bft)
01.02.2013 14:22 5,1 C 4,0 C 97 % 12 lf 997,7 hPa 0,0 l/m 0 min 0,0 UV-I 39 W/m 10,3 km/h (2 Bft)
01.02.2013 14:24 5,1 C 4,0 C 97 % 12 lf 997,6 hPa 0,0 l/m 0 min 0,0 UV-I 42 W/m 7,7 km/h (2 Bft)
01.02.2013 14:26 5,1 C 4,0 C 97 % 12 lf 997,5 hPa 0,0 l/m 0 min 0,0 UV-I 42 W/m 5,1 km/h (1 Bft)
01.02.2013 14:28 5,1 C 4,0 C 97 % 12 lf 997,5 hPa 0,2 l/m 0 min 0,0 UV-I 40 W/m 5,1 km/h (1 Bft)
01.02.2013 14:30 5,1 C 4,0 C 97 % 12 lf 997,4 hPa 0,0 l/m 0 min 0,0 UV-I 35 W/m 2,6 km/h (1 Bft)
01.02.2013 14:32 5,1 C 4,0 C 97 % 12 lf 997,4 hPa 0,0 l/m 0 min 0,0 UV-I 33 W/m 10,3 km/h (2 Bft)
01.02.2013 14:34 5,1 C 4,0 C 97 % 12 lf 997,3 hPa 0,0 l/m 0 min 0,0 UV-I 32 W/m 2,6 km/h (1 Bft)
01.02.2013 14:36 5,1 C 4,0 C 97 % 12 lf 997,3 hPa 0,0 l/m 0 min 0,0 UV-I 23 W/m 0,0 km/h (0 Bft)
01.02.2013 14:38 5,1 C 4,0 C 97 % 12 lf 997,2 hPa 0,0 l/m 0 min 0,0 UV-I 23 W/m 0,0 km/h (0 Bft)
01.02.2013 14:40 5,1 C 4,0 C 97 % 12 lf 997,1 hPa 0,0 l/m 0 min 0,0 UV-I 26 W/m 0,0 km/h (0 Bft)
01.02.2013 14:42 5,1 C 4,0 C 97 % 12 lf 997,0 hPa 0,2 l/m 0 min 0,0 UV-I 26 W/m 2,6 km/h (1 Bft)
01.02.2013 14:44 5,1 C 4,0 C 97 % 12 lf 997,0 hPa 0,0 l/m 0 min 0,0 UV-I 32 W/m 0,0 km/h (0 Bft)
01.02.2013 14:46 5,2 C 4,0 C 97 % 11 lf 996,9 hPa 0,0 l/m 0 min 0,0 UV-I 32 W/m 0,0 km/h (0 Bft)
01.02.2013 14:48 5,2 C 4,0 C 97 % 11 lf 996,8 hPa 0,0 l/m 0 min 0,0 UV-I 26 W/m 0,0 km/h (0 Bft)
01.02.2013 14:50 5,2 C 4,0 C 97 % 11 lf 996,7 hPa 0,0 l/m 0 min 0,0 UV-I 23 W/m 7,7 km/h (2 Bft)
01.02.2013 14:52 5,2 C 4,0 C 97 % 10 lf 996,7 hPa 0,0 l/m 0 min 0,0 UV-I 25 W/m 2,6 km/h (1 Bft)
01.02.2013 14:54 5,2 C 4,0 C 97 % 10 lf 996,7 hPa 0,2 l/m 0 min 0,0 UV-I 26 W/m 5,1 km/h (1 Bft)
01.02.2013 14:56 5,2 C 4,0 C 98 % 10 lf 996,7 hPa 0,0 l/m 0 min 0,0 UV-I 26 W/m 0,0 km/h (0 Bft)
01.02.2013 14:58 5,2 C 4,0 C 98 % 10 lf 996,6 hPa 0,0 l/m 0 min 0,0 UV-I 25 W/m 0,0 km/h (0 Bft)
01.02.2013 15:00 5,2 C 4,0 C 98 % 10 lf 996,5 hPa 0,0 l/m 0 min 0,0 UV-I 21 W/m 0,0 km/h (0 Bft)
01.02.2013 15:02 5,2 C 4,0 C 98 % 10 lf 996,4 hPa 0,0 l/m 0 min 0,0 UV-I 23 W/m 2,6 km/h (1 Bft)
01.02.2013 15:06 5,2 C 4,0 C 98 % 10 lf 996,2 hPa 0,2 l/m 0 min 0,0 UV-I 21 W/m 7,7 km/h (2 Bft)
01.02.2013 15:08 5,2 C 4,0 C 98 % 10 lf 996,3 hPa 0,0 l/m 0 min 0,0 UV-I 19 W/m 7,7 km/h (2 Bft)
01.02.2013 15:10 5,2 C 4,0 C 98 % 10 lf 996,2 hPa 0,0 l/m 0 min 0,0 UV-I 21 W/m 7,7 km/h (2 Bft)
01.02.2013 15:12 5,2 C 4,0 C 98 % 10 lf 996,1 hPa 0,2 l/m 0 min 0,0 UV-I 23 W/m 12,9 km/h (3 Bft)
01.02.2013 15:14 5,2 C 4,0 C 98 % 10 lf 996,0 hPa 0,0 l/m 0 min 0,0 UV-I 21 W/m 7,7 km/h (2 Bft)
01.02.2013 15:16 5,2 C 4,0 C 98 % 10 lf 996,0 hPa 0,0 l/m 0 min 0,0 UV-I 19 W/m 0,0 km/h (0 Bft)
01.02.2013 15:18 5,2 C 4,0 C 98 % 10 lf 995,9 hPa 0,2 l/m 0 min 0,0 UV-I 25 W/m 5,1 km/h (1 Bft)
01.02.2013 15:20 5,2 C 4,0 C 98 % 10 lf 995,8 hPa 0,0 l/m 0 min 0,0 UV-I 25 W/m 5,1 km/h (1 Bft)
01.02.2013 15:22 5,2 C 4,0 C 98 % 10 lf 995,7 hPa 0,0 l/m 0 min 0,0 UV-I 23 W/m 0,0 km/h (0 Bft)
01.02.2013 15:24 5,2 C 4,0 C 98 % 9 lf 995,6 hPa 0,0 l/m 0 min 0,0 UV-I 23 W/m 7,7 km/h (2 Bft)
01.02.2013 15:26 5,2 C 4,0 C 98 % 10 lf 995,6 hPa 0,2 l/m 0 min 0,0 UV-I 23 W/m 7,7 km/h (2 Bft)
01.02.2013 15:28 5,2 C 4,0 C 98 % 10 lf 995,6 hPa 0,0 l/m 0 min 0,0 UV-I 32 W/m 7,7 km/h (2 Bft)
01.02.2013 15:30 5,2 C 4,0 C 98 % 10 lf 995,5 hPa 0,0 l/m 0 min 0,0 UV-I 32 W/m 12,9 km/h (3 Bft)
01.02.2013 15:32 5,2 C 4,0 C 98 % 10 lf 995,4 hPa 0,0 l/m 0 min 0,0 UV-I 37 W/m 5,1 km/h (1 Bft)
01.02.2013 15:34 5,2 C 4,6 C 98 % 10 lf 995,3 hPa 0,2 l/m 0 min 0,0 UV-I 44 W/m 7,7 km/h (2 Bft)
01.02.2013 15:36 5,2 C 4,6 C 98 % 10 lf 995,3 hPa 0,0 l/m 0 min 0,0 UV-I 37 W/m 12,9 km/h (3 Bft)
01.02.2013 15:38 5,2 C 4,0 C 98 % 10 lf 995,2 hPa 0,0 l/m 0 min 0,0 UV-I 35 W/m 18,0 km/h (3 Bft)
01.02.2013 15:40 5,2 C 4,6 C 98 % 10 lf 995,2 hPa 0,0 l/m 0 min 0,0 UV-I 37 W/m 10,3 km/h (2 Bft)
01.02.2013 15:42 5,2 C 4,6 C 98 % 10 lf 995,2 hPa 0,0 l/m 0 min 0,0 UV-I 37 W/m 7,7 km/h (2 Bft)
01.02.2013 15:44 5,3 C 4,6 C 98 % 11 lf 995,1 hPa 0,0 l/m 0 min 0,0 UV-I 33 W/m 10,3 km/h (2 Bft)
01.02.2013 15:46 5,3 C 4,6 C 98 % 11 lf 995,1 hPa 0,2 l/m 0 min 0,0 UV-I 30 W/m 12,9 km/h (3 Bft)
01.02.2013 15:48 5,3 C 4,0 C 98 % 11 lf 995,1 hPa 0,0 l/m 0 min 0,0 UV-I 28 W/m 12,9 km/h (3 Bft)
01.02.2013 15:50 5,3 C 4,0 C 98 % 11 lf 995,1 hPa 0,0 l/m 0 min 0,0 UV-I 25 W/m 15,4 km/h (3 Bft)
01.02.2013 15:52 5,3 C 4,0 C 98 % 11 lf 995,1 hPa 0,0 l/m 0 min 0,0 UV-I 21 W/m 10,3 km/h (2 Bft)
01.02.2013 15:54 5,3 C 4,6 C 98 % 12 lf 995,0 hPa 0,0 l/m 0 min 0,0 UV-I 23 W/m 7,7 km/h (2 Bft)
01.02.2013 15:56 5,3 C 4,6 C 98 % 12 lf 995,0 hPa 0,0 l/m 0 min 0,0 UV-I 25 W/m 10,3 km/h (2 Bft)
01.02.2013 15:58 5,3 C 4,6 C 98 % 12 lf 995,0 hPa 0,0 l/m 0 min 0,0 UV-I 25 W/m 5,1 km/h (1 Bft)
01.02.2013 16:00 5,3 C 4,6 C 98 % 12 lf 994,9 hPa 0,0 l/m 0 min 0,0 UV-I 23 W/m 12,9 km/h (3 Bft)
01.02.2013 16:02 5,3 C 4,6 C 98 % 12 lf 994,9 hPa 0,0 l/m 0 min 0,0 UV-I 19 W/m 7,7 km/h (2 Bft)
01.02.2013 16:06 5,3 C 4,0 C 99 % 13 lf 994,8 hPa 0,0 l/m 0 min 0,0 UV-I 16 W/m 10,3 km/h (2 Bft)
01.02.2013 16:08 5,3 C 4,0 C 99 % 13 lf 994,8 hPa 0,0 l/m 0 min 0,0 UV-I 16 W/m 7,7 km/h (2 Bft)
01.02.2013 16:10 5,3 C 4,0 C 99 % 13 lf 994,6 hPa 0,0 l/m 0 min 0,0 UV-I 18 W/m 10,3 km/h (2 Bft)
01.02.2013 16:12 5,3 C 4,0 C 99 % 12 lf 994,5 hPa 0,0 l/m 0 min 0,0 UV-I 21 W/m 0,0 km/h (0 Bft)
01.02.2013 16:14 5,3 C 4,0 C 99 % 12 lf 994,5 hPa 0,2 l/m 0 min 0,0 UV-I 23 W/m 7,7 km/h (2 Bft)
01.02.2013 16:16 5,3 C 4,6 C 99 % 12 lf 994,4 hPa 0,0 l/m 0 min 0,0 UV-I 23 W/m 5,1 km/h (1 Bft)
01.02.2013 16:18 5,3 C 4,6 C 99 % 12 lf 994,4 hPa 0,0 l/m 0 min 0,0 UV-I 19 W/m 5,1 km/h (1 Bft)
01.02.2013 16:20 5,3 C 4,6 C 99 % 12 lf 994,4 hPa 0,0 l/m 0 min 0,0 UV-I 14 W/m 5,1 km/h (1 Bft)
01.02.2013 16:22 5,3 C 4,6 C 99 % 12 lf 994,4 hPa 0,0 l/m 0 min 0,0 UV-I 16 W/m 7,7 km/h (2 Bft)
01.02.2013 16:24 5,3 C 4,0 C 99 % 12 lf 994,4 hPa 0,0 l/m 0 min 0,0 UV-I 12 W/m 0,0 km/h (0 Bft)
01.02.2013 16:26 5,3 C 4,6 C 99 % 12 lf 994,4 hPa 0,0 l/m 0 min 0,0 UV-I 14 W/m 0,0 km/h (0 Bft)
01.02.2013 16:28 5,3 C 4,6 C 99 % 12 lf 994,4 hPa 0,2 l/m 0 min 0,0 UV-I 14 W/m 0,0 km/h (0 Bft)
01.02.2013 16:30 5,3 C 4,6 C 99 % 11 lf 994,3 hPa 0,0 l/m 0 min 0,0 UV-I 16 W/m 0,0 km/h (0 Bft)
01.02.2013 16:32 5,3 C 4,6 C 99 % 11 lf 994,2 hPa 0,0 l/m 0 min 0,0 UV-I 14 W/m 7,7 km/h (2 Bft)
01.02.2013 16:34 5,3 C 4,6 C 99 % 11 lf 994,2 hPa 0,0 l/m 0 min 0,0 UV-I 12 W/m 5,1 km/h (1 Bft)
01.02.2013 16:36 5,3 C 4,6 C 99 % 11 lf 994,2 hPa 0,0 l/m 0 min 0,0 UV-I 11 W/m 5,1 km/h (1 Bft)
01.02.2013 16:38 5,3 C 4,6 C 99 % 11 lf 994,2 hPa 0,0 l/m 0 min 0,0 UV-I 11 W/m 0,0 km/h (0 Bft)
01.02.2013 16:40 5,3 C 4,6 C 99 % 11 lf 994,1 hPa 0,2 l/m 0 min 0,0 UV-I 9 W/m 2,6 km/h (1 Bft)
01.02.2013 16:42 5,4 C 4,6 C 99 % 11 lf 994,0 hPa 0,0 l/m 0 min 0,0 UV-I 7 W/m 10,3 km/h (2 Bft)
01.02.2013 16:44 5,4 C 4,6 C 99 % 11 lf 993,9 hPa 0,0 l/m 0 min 0,0 UV-I 9 W/m 5,1 km/h (1 Bft)
01.02.2013 16:46 5,4 C 4,6 C 99 % 11 lf 993,9 hPa 0,0 l/m 0 min 0,0 UV-I 5 W/m 2,6 km/h (1 Bft)
01.02.2013 16:48 5,4 C 4,6 C 99 % 10 lf 993,9 hPa 0,0 l/m 0 min 0,0 UV-I 5 W/m 2,6 km/h (1 Bft)
01.02.2013 16:50 5,4 C 4,6 C 99 % 10 lf 993,9 hPa 0,2 l/m 0 min 0,0 UV-I 5 W/m 0,0 km/h (0 Bft)
01.02.2013 16:52 5,4 C 4,6 C 99 % 10 lf 993,9 hPa 0,0 l/m 0 min 0,0 UV-I 7 W/m 0,0 km/h (0 Bft)
01.02.2013 16:54 5,4 C 4,6 C 99 % 10 lf 993,8 hPa 0,0 l/m 0 min 0,0 UV-I 7 W/m 0,0 km/h (0 Bft)
01.02.2013 16:56 5,4 C 4,6 C 99 % 10 lf 993,8 hPa 0,0 l/m 0 min 0,0 UV-I 5 W/m 0,0 km/h (0 Bft)
01.02.2013 16:58 5,4 C 4,6 C 99 % 11 lf 993,7 hPa 0,0 l/m 0 min 0,0 UV-I 5 W/m 0,0 km/h (0 Bft)
01.02.2013 17:00 5,4 C 4,6 C 99 % 11 lf 993,6 hPa 0,0 l/m 0 min 0,0 UV-I 5 W/m 0,0 km/h (0 Bft)
01.02.2013 17:02 5,4 C 4,6 C 99 % 11 lf 993,6 hPa 0,2 l/m 0 min 0,0 UV-I 5 W/m 7,7 km/h (2 Bft)
01.02.2013 17:06 5,4 C 4,6 C 99 % 10 lf 993,4 hPa 0,0 l/m 0 min 0,0 UV-I 5 W/m 7,7 km/h (2 Bft)
01.02.2013 17:08 5,4 C 4,6 C 99 % 10 lf 993,4 hPa 0,0 l/m 0 min 0,0 UV-I 0 W/m 7,7 km/h (2 Bft)
01.02.2013 17:10 5,4 C 4,6 C 99 % 10 lf 993,3 hPa 0,0 l/m 0 min 0,0 UV-I 0 W/m 0,0 km/h (0 Bft)
01.02.2013 17:12 5,5 C 4,6 C 99 % 11 lf 993,2 hPa 0,0 l/m 0 min 0,0 UV-I 0 W/m 2,6 km/h (1 Bft)
01.02.2013 17:14 5,5 C 4,6 C 99 % 11 lf 993,0 hPa 0,0 l/m 0 min 0,0 UV-I 0 W/m 5,1 km/h (1 Bft)
01.02.2013 17:16 5,5 C 4,6 C 99 % 11 lf 992,9 hPa 0,2 l/m 0 min 0,0 UV-I 0 W/m 5,1 km/h (1 Bft)
01.02.2013 17:18 5,5 C 4,6 C 99 % 11 lf 992,8 hPa 0,0 l/m 0 min 0,0 UV-I 0 W/m 7,7 km/h (2 Bft)
01.02.2013 17:20 5,5 C 4,6 C 99 % 12 lf 992,7 hPa 0,0 l/m 0 min 0,0 UV-I 0 W/m 7,7 km/h (2 Bft)
01.02.2013 17:22 5,5 C 4,6 C 99 % 12 lf 992,7 hPa 0,0 l/m 0 min 0,0 UV-I 0 W/m 7,7 km/h (2 Bft)
01.02.2013 17:24 5,5 C 4,6 C 99 % 12 lf 992,6 hPa 0,0 l/m 0 min 0,0 UV-I 0 W/m 0,0 km/h (0 Bft)
01.02.2013 17:26 5,5 C 4,6 C 99 % 12 lf 992,6 hPa 0,0 l/m 0 min 0,0 UV-I 0 W/m 0,0 km/h (0 Bft)
01.02.2013 17:28 5,5 C 4,6 C 99 % 12 lf 992,5 hPa 0,0 l/m 0 min 0,0 UV-I 0 W/m 7,7 km/h (2 Bft)
01.02.2013 17:30 5,5 C 4,6 C 99 % 12 lf 992,4 hPa 0,0 l/m 0 min 0,0 UV-I 0 W/m 5,1 km/h (1 Bft)
01.02.2013 17:32 5,6 C 4,6 C 99 % 13 lf 992,4 hPa 0,0 l/m 0 min 0,0 UV-I 0 W/m 5,1 km/h (1 Bft)
01.02.2013 17:34 5,5 C 4,6 C 99 % 13 lf 992,3 hPa 0,0 l/m 0 min 0,0 UV-I 0 W/m 5,1 km/h (1 Bft)
01.02.2013 17:36 5,6 C 4,6 C 99 % 13 lf 992,3 hPa 0,0 l/m 0 min 0,0 UV-I 0 W/m 0,0 km/h (0 Bft)
01.02.2013 17:38 5,6 C 4,6 C 99 % 13 lf 992,3 hPa 0,0 l/m 0 min 0,0 UV-I 0 W/m 2,6 km/h (1 Bft)
01.02.2013 17:40 5,6 C 4,6 C 99 % 13 lf 992,3 hPa 0,0 l/m 0 min 0,0 UV-I 0 W/m 0,0 km/h (0 Bft)
01.02.2013 17:42 5,6 C 4,6 C 99 % 13 lf 992,2 hPa 0,0 l/m 0 min 0,0 UV-I 0 W/m 0,0 km/h (0 Bft)
01.02.2013 17:44 5,6 C 4,6 C 99 % 13 lf 992,1 hPa 0,0 l/m 0 min 0,0 UV-I 0 W/m 0,0 km/h (0 Bft)
01.02.2013 17:46 5,6 C 4,6 C 99 % 13 lf 992,1 hPa 0,0 l/m 0 min 0,0 UV-I 0 W/m 2,6 km/h (1 Bft)
01.02.2013 17:48 5,6 C 4,6 C 99 % 13 lf 992,1 hPa 0,0 l/m 0 min 0,0 UV-I 0 W/m 0,0 km/h (0 Bft)
01.02.2013 17:50 5,6 C 4,6 C 99 % 13 lf 992,1 hPa 0,0 l/m 0 min 0,0 UV-I 0 W/m 2,6 km/h (1 Bft)
01.02.2013 17:52 5,6 C 4,6 C 99 % 12 lf 992,1 hPa 0,0 l/m 0 min 0,0 UV-I 0 W/m 0,0 km/h (0 Bft)
01.02.2013 17:54 5,6 C 4,6 C 99 % 12 lf 992,1 hPa 0,2 l/m 0 min 0,0 UV-I 0 W/m 0,0 km/h (0 Bft)
01.02.2013 17:56 5,6 C 4,6 C 99 % 12 lf 992,1 hPa 0,0 l/m 0 min 0,0 UV-I 0 W/m 2,6 km/h (1 Bft)
01.02.2013 17:58 5,6 C 4,6 C 99 % 12 lf 992,0 hPa 0,0 l/m 0 min 0,0 UV-I 0 W/m 0,0 km/h (0 Bft)
01.02.2013 18:00 5,6 C 4,6 C 99 % 11 lf 992,0 hPa 0,0 l/m 0 min 0,0 UV-I 0 W/m 0,0 km/h (0 Bft)
01.02.2013 18:02 5,6 C 4,6 C 99 % 11 lf 992,1 hPa 0,2 l/m 0 min 0,0 UV-I 0 W/m 7,7 km/h (2 Bft)
01.02.2013 18:06 5,7 C 4,6 C 99 % 12 lf 992,1 hPa 0,0 l/m 0 min 0,0 UV-I 0 W/m 7,7 km/h (2 Bft)
01.02.2013 18:08 5,7 C 4,6 C 99 % 11 lf 992,0 hPa 0,0 l/m 0 min 0,0 UV-I 0 W/m 7,7 km/h (2 Bft)
01.02.2013 18:10 5,7 C 4,6 C 99 % 12 lf 992,0 hPa 0,2 l/m 0 min 0,0 UV-I 0 W/m 7,7 km/h (2 Bft)
01.02.2013 18:12 5,7 C 4,6 C 99 % 11 lf 992,0 hPa 0,0 l/m 0 min 0,0 UV-I 0 W/m 10,3 km/h (2 Bft)
01.02.2013 18:14 5,7 C 4,6 C 99 % 11 lf 991,9 hPa 0,0 l/m 0 min 0,0 UV-I 0 W/m 7,7 km/h (2 Bft)
01.02.2013 18:16 5,7 C 4,6 C 100 % 11 lf 992,0 hPa 0,2 l/m 0 min 0,0 UV-I 0 W/m 0,0 km/h (0 Bft)
01.02.2013 18:18 5,8 C 4,6 C 100 % 10 lf 991,9 hPa 0,0 l/m 0 min 0,0 UV-I 0 W/m 7,7 km/h (2 Bft)
01.02.2013 18:20 5,8 C 4,6 C 100 % 10 lf 991,9 hPa 0,2 l/m 0 min 0,0 UV-I 0 W/m 7,7 km/h (2 Bft)
01.02.2013 18:22 5,8 C 4,6 C 100 % 11 lf 991,9 hPa 0,0 l/m 0 min 0,0 UV-I 0 W/m 0,0 km/h (0 Bft)
01.02.2013 18:24 5,8 C 4,6 C 100 % 11 lf 991,9 hPa 0,0 l/m 0 min 0,0 UV-I 0 W/m 0,0 km/h (0 Bft)
01.02.2013 18:26 5,8 C 5,1 C 100 % 10 lf 991,9 hPa 0,2 l/m 0 min 0,0 UV-I 0 W/m 0,0 km/h (0 Bft)
01.02.2013 18:28 5,8 C 5,1 C 100 % 11 lf 991,8 hPa 0,0 l/m 0 min 0,0 UV-I 0 W/m 7,7 km/h (2 Bft)
01.02.2013 18:30 5,9 C 5,1 C 100 % 11 lf 991,8 hPa 0,0 l/m 0 min 0,0 UV-I 0 W/m 7,7 km/h (2 Bft)
01.02.2013 18:32 5,9 C 5,1 C 100 % 11 lf 991,8 hPa 0,0 l/m 0 min 0,0 UV-I 0 W/m 0,0 km/h (0 Bft)
01.02.2013 18:34 5,9 C 5,1 C 100 % 11 lf 991,8 hPa 0,2 l/m 0 min 0,0 UV-I 0 W/m 2,6 km/h (1 Bft)
01.02.2013 18:36 5,9 C 5,1 C 100 % 11 lf 991,8 hPa 0,2 l/m 0 min 0,0 UV-I 0 W/m 2,6 km/h (1 Bft)
01.02.2013 18:38 5,9 C 5,1 C 100 % 11 lf 991,8 hPa 0,0 l/m 0 min 0,0 UV-I 0 W/m 0,0 km/h (0 Bft)
01.02.2013 18:40 5,9 C 5,1 C 100 % 11 lf 991,8 hPa 0,0 l/m 0 min 0,0 UV-I 0 W/m 0,0 km/h (0 Bft)
01.02.2013 18:42 5,9 C 5,1 C 100 % 11 lf 991,8 hPa 0,2 l/m 0 min 0,0 UV-I 0 W/m 7,7 km/h (2 Bft)
01.02.2013 18:44 5,9 C 5,1 C 100 % 10 lf 991,8 hPa 0,2 l/m 0 min 0,0 UV-I 0 W/m 7,7 km/h (2 Bft)
01.02.2013 18:46 6,0 C 5,1 C 100 % 11 lf 991,8 hPa 0,0 l/m 0 min 0,0 UV-I 0 W/m 0,0 km/h (0 Bft)
01.02.2013 18:48 6,0 C 5,1 C 100 % 11 lf 991,7 hPa 0,0 l/m 0 min 0,0 UV-I 0 W/m 0,0 km/h (0 Bft)
01.02.2013 18:50 6,0 C 5,1 C 100 % 11 lf 991,8 hPa 0,2 l/m 0 min 0,0 UV-I 0 W/m 0,0 km/h (0 Bft)
01.02.2013 18:52 6,0 C 5,1 C 100 % 11 lf 991,8 hPa 0,0 l/m 0 min 0,0 UV-I 0 W/m 0,0 km/h (0 Bft)
01.02.2013 18:54 6,0 C 5,1 C 100 % 11 lf 991,8 hPa 0,0 l/m 0 min 0,0 UV-I 0 W/m 0,0 km/h (0 Bft)
01.02.2013 18:56 6,0 C 5,1 C 100 % 11 lf 991,7 hPa 0,2 l/m 0 min 0,0 UV-I 0 W/m 0,0 km/h (0 Bft)
01.02.2013 18:58 6,0 C 5,1 C 100 % 12 lf 991,7 hPa 0,0 l/m 0 min 0,0 UV-I 0 W/m 0,0 km/h (0 Bft)
01.02.2013 19:00 6,1 C 5,1 C 100 % 12 lf 991,6 hPa 0,0 l/m 0 min 0,0 UV-I 0 W/m 0,0 km/h (0 Bft)
01.02.2013 19:02 6,1 C 5,1 C 100 % 12 lf 991,6 hPa 0,0 l/m 0 min 0,0 UV-I 0 W/m 2,6 km/h (1 Bft)
01.02.2013 19:06 6,1 C 5,1 C 100 % 13 lf 991,5 hPa 0,0 l/m 0 min 0,0 UV-I 0 W/m 0,0 km/h (0 Bft)
01.02.2013 19:08 6,1 C 5,1 C 100 % 13 lf 991,5 hPa 0,0 l/m 0 min 0,0 UV-I 0 W/m 0,0 km/h (0 Bft)
01.02.2013 19:10 6,1 C 5,1 C 100 % 13 lf 991,4 hPa 0,0 l/m 0 min 0,0 UV-I 0 W/m 5,1 km/h (1 Bft)
01.02.2013 19:12 6,1 C 5,1 C 100 % 13 lf 991,5 hPa 0,0 l/m 0 min 0,0 UV-I 0 W/m 2,6 km/h (1 Bft)
01.02.2013 19:14 6,1 C 5,1 C 100 % 14 lf 991,7 hPa 0,2 l/m 0 min 0,0 UV-I 0 W/m 15,4 km/h (3 Bft)
01.02.2013 19:16 6,1 C 4,6 C 100 % 14 lf 991,6 hPa 0,0 l/m 0 min 0,0 UV-I 0 W/m 23,2 km/h (4 Bft)
01.02.2013 19:18 6,1 C 4,6 C 100 % 14 lf 991,7 hPa 0,0 l/m 0 min 0,0 UV-I 0 W/m 18,0 km/h (3 Bft)
01.02.2013 19:20 6,0 C 4,6 C 100 % 14 lf 991,6 hPa 0,0 l/m 0 min 0,0 UV-I 0 W/m 10,3 km/h (2 Bft)
01.02.2013 19:22 5,9 C 4,6 C 100 % 14 lf 991,6 hPa 0,2 l/m 0 min 0,0 UV-I 0 W/m 15,4 km/h (3 Bft)
01.02.2013 19:24 5,9 C 4,6 C 100 % 14 lf 991,7 hPa 0,0 l/m 0 min 0,0 UV-I 0 W/m 12,9 km/h (3 Bft)
01.02.2013 19:26 5,8 C 4,6 C 100 % 14 lf 991,7 hPa 0,0 l/m 0 min 0,0 UV-I 0 W/m 12,9 km/h (3 Bft)
01.02.2013 19:28 5,8 C 4,6 C 100 % 14 lf 991,8 hPa 0,0 l/m 0 min 0,0 UV-I 0 W/m 23,2 km/h (4 Bft)
01.02.2013 19:30 5,7 C 4,6 C 100 % 14 lf 991,8 hPa 0,0 l/m 0 min 0,0 UV-I 0 W/m 20,6 km/h (4 Bft)
01.02.2013 19:32 5,7 C 4,0 C 99 % 14 lf 991,9 hPa 0,0 l/m 0 min 0,0 UV-I 0 W/m 20,6 km/h (4 Bft)
01.02.2013 19:34 5,6 C 4,0 C 99 % 14 lf 991,9 hPa 0,0 l/m 0 min 0,0 UV-I 0 W/m 25,7 km/h (4 Bft)
01.02.2013 19:36 5,6 C 4,0 C 99 % 14 lf 992,0 hPa 0,2 l/m 0 min 0,0 UV-I 0 W/m 18,0 km/h (3 Bft)
01.02.2013 19:38 5,5 C 4,0 C 100 % 14 lf 991,9 hPa 0,0 l/m 0 min 0,0 UV-I 0 W/m 28,3 km/h (4 Bft)
01.02.2013 19:40 5,4 C 4,0 C 100 % 14 lf 991,9 hPa 0,0 l/m 0 min 0,0 UV-I 0 W/m 18,0 km/h (3 Bft)
01.02.2013 19:42 5,4 C 4,0 C 100 % 14 lf 991,9 hPa 0,0 l/m 0 min 0,0 UV-I 0 W/m 18,0 km/h (3 Bft)
01.02.2013 19:44 5,4 C 4,0 C 100 % 14 lf 992,0 hPa 0,0 l/m 0 min 0,0 UV-I 0 W/m 30,9 km/h (5 Bft)
01.02.2013 19:46 5,3 C 4,0 C 99 % 14 lf 992,0 hPa 0,0 l/m 0 min 0,0 UV-I 0 W/m 33,5 km/h (5 Bft)
01.02.2013 19:48 5,3 C 4,0 C 99 % 14 lf 992,1 hPa 0,0 l/m 0 min 0,0 UV-I 0 W/m 23,2 km/h (4 Bft)
01.02.2013 19:50 5,2 C 4,0 C 99 % 14 lf 992,1 hPa 0,2 l/m 0 min 0,0 UV-I 0 W/m 20,6 km/h (4 Bft)
01.02.2013 19:52 5,2 C 4,0 C 99 % 14 lf 992,1 hPa 0,0 l/m 0 min 0,0 UV-I 0 W/m 18,0 km/h (3 Bft)
01.02.2013 19:54 5,1 C 4,0 C 99 % 14 lf 992,1 hPa 0,0 l/m 0 min 0,0 UV-I 0 W/m 20,6 km/h (4 Bft)
01.02.2013 19:56 5,1 C 4,0 C 99 % 15 lf 992,2 hPa 0,0 l/m 0 min 0,0 UV-I 0 W/m 28,3 km/h (4 Bft)
01.02.2013 19:58 5,1 C 4,0 C 99 % 15 lf 992,2 hPa 0,0 l/m 0 min 0,0 UV-I 0 W/m 23,2 km/h (4 Bft)
01.02.2013 20:00 5,1 C 4,0 C 99 % 15 lf 992,2 hPa 0,0 l/m 0 min 0,0 UV-I 0 W/m 23,2 km/h (4 Bft)
01.02.2013 20:02 5,0 C 3,4 C 99 % 15 lf 992,3 hPa 0,0 l/m 0 min 0,0 UV-I 0 W/m 33,5 km/h (5 Bft)
01.02.2013 20:06 4,8 C 3,4 C 99 % 15 lf 992,3 hPa 0,0 l/m 0 min 0,0 UV-I 0 W/m 30,9 km/h (5 Bft)
01.02.2013 20:08 4,7 C 3,4 C 99 % 15 lf 992,4 hPa 0,0 l/m 0 min 0,0 UV-I 0 W/m 30,9 km/h (5 Bft)
01.02.2013 20:10 4,7 C 2,9 C 99 % 15 lf 992,3 hPa 0,0 l/m 0 min 0,0 UV-I 0 W/m 33,5 km/h (5 Bft)
01.02.2013 20:12 4,6 C 2,9 C 99 % 15 lf 992,4 hPa 0,0 l/m 0 min 0,0 UV-I 0 W/m 23,2 km/h (4 Bft)
01.02.2013 20:14 4,4 C 2,9 C 99 % 14 lf 992,4 hPa 0,0 l/m 0 min 0,0 UV-I 0 W/m 20,6 km/h (4 Bft)
01.02.2013 20:16 4,4 C 2,9 C 99 % 14 lf 992,4 hPa 0,0 l/m 0 min 0,0 UV-I 0 W/m 15,4 km/h (3 Bft)
01.02.2013 20:18 4,3 C 2,9 C 99 % 14 lf 992,4 hPa 0,0 l/m 0 min 0,0 UV-I 0 W/m 12,9 km/h (3 Bft)
01.02.2013 20:20 4,3 C 2,9 C 99 % 14 lf 992,4 hPa 0,0 l/m 0 min 0,0 UV-I 0 W/m 15,4 km/h (3 Bft)
01.02.2013 20:22 4,2 C 2,9 C 99 % 14 lf 992,5 hPa 0,0 l/m 0 min 0,0 UV-I 0 W/m 15,4 km/h (3 Bft)
01.02.2013 20:24 4,2 C 2,9 C 99 % 14 lf 992,5 hPa 0,0 l/m 0 min 0,0 UV-I 0 W/m 20,6 km/h (4 Bft)
01.02.2013 20:26 4,2 C 2,9 C 99 % 14 lf 992,6 hPa 0,0 l/m 0 min 0,0 UV-I 0 W/m 18,0 km/h (3 Bft)
01.02.2013 20:28 4,1 C 2,9 C 99 % 14 lf 992,7 hPa 0,0 l/m 0 min 0,0 UV-I 0 W/m 15,4 km/h (3 Bft)
01.02.2013 20:30 4,1 C 2,9 C 99 % 14 lf 992,7 hPa 0,0 l/m 0 min 0,0 UV-I 0 W/m 15,4 km/h (3 Bft)
01.02.2013 20:32 4,1 C 2,9 C 99 % 14 lf 992,7 hPa 0,0 l/m 0 min 0,0 UV-I 0 W/m 15,4 km/h (3 Bft)
01.02.2013 20:34 4,1 C 2,9 C 99 % 14 lf 992,8 hPa 0,0 l/m 0 min 0,0 UV-I 0 W/m 20,6 km/h (4 Bft)
01.02.2013 20:36 4,0 C 2,9 C 99 % 14 lf 992,7 hPa 0,0 l/m 0 min 0,0 UV-I 0 W/m 18,0 km/h (3 Bft)
01.02.2013 20:38 4,0 C 2,9 C 99 % 13 lf 992,7 hPa 0,0 l/m 0 min 0,0 UV-I 0 W/m 12,9 km/h (3 Bft)
01.02.2013 20:40 4,0 C 2,9 C 99 % 13 lf 992,8 hPa 0,0 l/m 0 min 0,0 UV-I 0 W/m 12,9 km/h (3 Bft)
01.02.2013 20:42 4,0 C 2,9 C 99 % 13 lf 992,9 hPa 0,0 l/m 0 min 0,0 UV-I 0 W/m 18,0 km/h (3 Bft)
01.02.2013 20:44 4,0 C 2,9 C 99 % 13 lf 992,9 hPa 0,0 l/m 0 min 0,0 UV-I 0 W/m 15,4 km/h (3 Bft)
01.02.2013 20:46 3,9 C 2,9 C 99 % 13 lf 992,8 hPa 0,0 l/m 0 min 0,0 UV-I 0 W/m 18,0 km/h (3 Bft)
01.02.2013 20:48 3,9 C 2,9 C 99 % 13 lf 992,9 hPa 0,0 l/m 0 min 0,0 UV-I 0 W/m 18,0 km/h (3 Bft)
01.02.2013 20:50 3,9 C 2,9 C 99 % 13 lf 993,0 hPa 0,0 l/m 0 min 0,0 UV-I 0 W/m 12,9 km/h (3 Bft)
01.02.2013 20:52 3,9 C 2,9 C 99 % 13 lf 993,0 hPa 0,0 l/m 0 min 0,0 UV-I 0 W/m 20,6 km/h (4 Bft)
01.02.2013 20:54 3,9 C 2,9 C 99 % 13 lf 993,0 hPa 0,0 l/m 0 min 0,0 UV-I 0 W/m 15,4 km/h (3 Bft)
01.02.2013 20:56 3,9 C 2,9 C 99 % 12 lf 993,0 hPa 0,0 l/m 0 min 0,0 UV-I 0 W/m 10,3 km/h (2 Bft)
01.02.2013 20:58 3,9 C 2,9 C 99 % 12 lf 993,1 hPa 0,0 l/m 0 min 0,0 UV-I 0 W/m 12,9 km/h (3 Bft)
01.02.2013 21:00 3,9 C 2,9 C 99 % 12 lf 993,1 hPa 0,0 l/m 0 min 0,0 UV-I 0 W/m 15,4 km/h (3 Bft)
01.02.2013 21:02 3,9 C 2,9 C 99 % 12 lf 993,1 hPa 0,0 l/m 0 min 0,0 UV-I 0 W/m 18,0 km/h (3 Bft)
01.02.2013 21:06 3,9 C 2,9 C 99 % 12 lf 993,2 hPa 0,0 l/m 0 min 0,0 UV-I 0 W/m 15,4 km/h (3 Bft)
01.02.2013 21:08 3,9 C 2,9 C 99 % 12 lf 993,1 hPa 0,0 l/m 0 min 0,0 UV-I 0 W/m 7,7 km/h (2 Bft)
01.02.2013 21:10 3,9 C 2,9 C 99 % 12 lf 993,3 hPa 0,0 l/m 0 min 0,0 UV-I 0 W/m 5,1 km/h (1 Bft)
01.02.2013 21:12 3,9 C 2,9 C 99 % 12 lf 993,3 hPa 0,0 l/m 0 min 0,0 UV-I 0 W/m 15,4 km/h (3 Bft)
01.02.2013 21:14 3,9 C 2,9 C 99 % 12 lf 993,3 hPa 0,0 l/m 0 min 0,0 UV-I 0 W/m 12,9 km/h (3 Bft)
01.02.2013 21:16 3,9 C 2,9 C 99 % 12 lf 993,3 hPa 0,0 l/m 0 min 0,0 UV-I 0 W/m 20,6 km/h (4 Bft)
01.02.2013 21:18 3,9 C 2,9 C 99 % 12 lf 993,4 hPa 0,0 l/m 0 min 0,0 UV-I 0 W/m 12,9 km/h (3 Bft)
01.02.2013 21:20 3,9 C 2,9 C 99 % 12 lf 993,4 hPa 0,0 l/m 0 min 0,0 UV-I 0 W/m 28,3 km/h (4 Bft)
01.02.2013 21:22 3,9 C 2,9 C 99 % 13 lf 993,5 hPa 0,0 l/m 0 min 0,0 UV-I 0 W/m 18,0 km/h (3 Bft)
01.02.2013 21:24 3,9 C 2,9 C 99 % 13 lf 993,5 hPa 0,0 l/m 0 min 0,0 UV-I 0 W/m 20,6 km/h (4 Bft)
01.02.2013 21:26 3,9 C 2,9 C 99 % 13 lf 993,5 hPa 0,0 l/m 0 min 0,0 UV-I 0 W/m 15,4 km/h (3 Bft)
01.02.2013 21:28 3,9 C 2,9 C 99 % 14 lf 993,5 hPa 0,0 l/m 0 min 0,0 UV-I 0 W/m 10,3 km/h (2 Bft)
01.02.2013 21:30 3,8 C 2,3 C 99 % 14 lf 993,5 hPa 0,0 l/m 0 min 0,0 UV-I 0 W/m 12,9 km/h (3 Bft)
01.02.2013 21:32 3,8 C 2,3 C 99 % 14 lf 993,5 hPa 0,0 l/m 0 min 0,0 UV-I 0 W/m 5,1 km/h (1 Bft)
01.02.2013 21:34 3,8 C 2,3 C 99 % 14 lf 993,5 hPa 0,0 l/m 0 min 0,0 UV-I 0 W/m 7,7 km/h (2 Bft)
01.02.2013 21:36 3,8 C 2,3 C 99 % 14 lf 993,6 hPa 0,0 l/m 0 min 0,0 UV-I 0 W/m 10,3 km/h (2 Bft)
01.02.2013 21:38 3,8 C 2,3 C 99 % 14 lf 993,6 hPa 0,0 l/m 0 min 0,0 UV-I 0 W/m 5,1 km/h (1 Bft)
01.02.2013 21:40 3,8 C 2,3 C 99 % 13 lf 993,7 hPa 0,0 l/m 0 min 0,0 UV-I 0 W/m 23,2 km/h (4 Bft)
01.02.2013 21:42 3,7 C 2,3 C 99 % 13 lf 993,7 hPa 0,0 l/m 0 min 0,0 UV-I 0 W/m 15,4 km/h (3 Bft)
01.02.2013 21:44 3,7 C 2,3 C 99 % 13 lf 993,8 hPa 0,0 l/m 0 min 0,0 UV-I 0 W/m 12,9 km/h (3 Bft)
01.02.2013 21:46 3,7 C 2,3 C 99 % 13 lf 993,8 hPa 0,0 l/m 0 min 0,0 UV-I 0 W/m 15,4 km/h (3 Bft)
01.02.2013 21:48 3,6 C 2,3 C 99 % 13 lf 993,9 hPa 0,0 l/m 0 min 0,0 UV-I 0 W/m 18,0 km/h (3 Bft)
01.02.2013 21:50 3,6 C 2,3 C 99 % 13 lf 993,9 hPa 0,0 l/m 0 min 0,0 UV-I 0 W/m 15,4 km/h (3 Bft)
01.02.2013 21:52 3,6 C 2,3 C 99 % 13 lf 993,9 hPa 0,0 l/m 0 min 0,0 UV-I 0 W/m 12,9 km/h (3 Bft)
01.02.2013 21:54 3,6 C 2,3 C 99 % 13 lf 993,9 hPa 0,0 l/m 0 min 0,0 UV-I 0 W/m 10,3 km/h (2 Bft)
01.02.2013 21:56 3,5 C 2,3 C 99 % 13 lf 993,9 hPa 0,0 l/m 0 min 0,0 UV-I 0 W/m 12,9 km/h (3 Bft)
01.02.2013 21:58 3,5 C 2,3 C 99 % 12 lf 994,1 hPa 0,0 l/m 0 min 0,0 UV-I 0 W/m 23,2 km/h (4 Bft)
01.02.2013 22:00 3,4 C 2,3 C 99 % 12 lf 994,1 hPa 0,0 l/m 0 min 0,0 UV-I 0 W/m 18,0 km/h (3 Bft)
01.02.2013 22:02 3,4 C 2,3 C 98 % 12 lf 994,1 hPa 0,0 l/m 0 min 0,0 UV-I 0 W/m 12,9 km/h (3 Bft)
01.02.2013 22:06 3,4 C 2,3 C 98 % 12 lf 994,0 hPa 0,0 l/m 0 min 0,0 UV-I 0 W/m 7,7 km/h (2 Bft)
01.02.2013 22:08 3,4 C 2,3 C 98 % 12 lf 994,2 hPa 0,0 l/m 0 min 0,0 UV-I 0 W/m 15,4 km/h (3 Bft)
01.02.2013 22:10 3,4 C 2,3 C 98 % 12 lf 994,2 hPa 0,0 l/m 0 min 0,0 UV-I 0 W/m 20,6 km/h (4 Bft)
01.02.2013 22:12 3,4 C 2,3 C 98 % 12 lf 994,2 hPa 0,0 l/m 0 min 0,0 UV-I 0 W/m 23,2 km/h (4 Bft)
01.02.2013 22:14 3,3 C 2,3 C 98 % 12 lf 994,2 hPa 0,0 l/m 0 min 0,0 UV-I 0 W/m 15,4 km/h (3 Bft)
01.02.2013 22:16 3,3 C 2,3 C 98 % 11 lf 994,2 hPa 0,0 l/m 0 min 0,0 UV-I 0 W/m 7,7 km/h (2 Bft)
01.02.2013 22:18 3,3 C 2,3 C 98 % 11 lf 994,2 hPa 0,0 l/m 0 min 0,0 UV-I 0 W/m 7,7 km/h (2 Bft)
01.02.2013 22:20 3,3 C 2,3 C 98 % 11 lf 994,3 hPa 0,0 l/m 0 min 0,0 UV-I 0 W/m 18,0 km/h (3 Bft)
01.02.2013 22:22 3,3 C 2,3 C 98 % 11 lf 994,3 hPa 0,0 l/m 0 min 0,0 UV-I 0 W/m 20,6 km/h (4 Bft)
01.02.2013 22:24 3,3 C 2,3 C 98 % 11 lf 994,3 hPa 0,0 l/m 0 min 0,0 UV-I 0 W/m 12,9 km/h (3 Bft)
01.02.2013 22:26 3,3 C 2,3 C 98 % 10 lf 994,4 hPa 0,0 l/m 0 min 0,0 UV-I 0 W/m 2,6 km/h (1 Bft)
01.02.2013 22:28 3,3 C 2,3 C 98 % 10 lf 994,4 hPa 0,0 l/m 0 min 0,0 UV-I 0 W/m 2,6 km/h (1 Bft)
01.02.2013 22:30 3,3 C 2,3 C 98 % 10 lf 994,5 hPa 0,0 l/m 0 min 0,0 UV-I 0 W/m 18,0 km/h (3 Bft)
01.02.2013 22:32 3,3 C 2,3 C 98 % 10 lf 994,5 hPa 0,0 l/m 0 min 0,0 UV-I 0 W/m 7,7 km/h (2 Bft)
01.02.2013 22:34 3,3 C 2,3 C 98 % 10 lf 994,5 hPa 0,0 l/m 0 min 0,0 UV-I 0 W/m 10,3 km/h (2 Bft)
01.02.2013 22:36 3,3 C 2,3 C 98 % 9 lf 994,6 hPa 0,0 l/m 0 min 0,0 UV-I 0 W/m 10,3 km/h (2 Bft)
01.02.2013 22:38 3,3 C 2,3 C 98 % 9 lf 994,6 hPa 0,0 l/m 0 min 0,0 UV-I 0 W/m 18,0 km/h (3 Bft)
01.02.2013 22:40 3,3 C 2,3 C 98 % 9 lf 994,7 hPa 0,0 l/m 0 min 0,0 UV-I 0 W/m 7,7 km/h (2 Bft)
01.02.2013 22:42 3,3 C 2,3 C 98 % 8 lf 994,7 hPa 0,0 l/m 0 min 0,0 UV-I 0 W/m 15,4 km/h (3 Bft)
01.02.2013 22:44 3,3 C 2,3 C 98 % 9 lf 994,8 hPa 0,0 l/m 0 min 0,0 UV-I 0 W/m 10,3 km/h (2 Bft)
01.02.2013 22:46 3,3 C 1,8 C 98 % 10 lf 994,9 hPa 0,0 l/m 0 min 0,0 UV-I 0 W/m 18,0 km/h (3 Bft)
01.02.2013 22:48 3,2 C 1,8 C 98 % 11 lf 994,9 hPa 0,0 l/m 0 min 0,0 UV-I 0 W/m 18,0 km/h (3 Bft)
01.02.2013 22:50 3,2 C 1,8 C 98 % 12 lf 994,9 hPa 0,0 l/m 0 min 0,0 UV-I 0 W/m 0,0 km/h (0 Bft)
01.02.2013 22:52 3,2 C 1,8 C 98 % 12 lf 994,9 hPa 0,0 l/m 0 min 0,0 UV-I 0 W/m 0,0 km/h (0 Bft)
01.02.2013 22:54 3,2 C 1,8 C 98 % 12 lf 994,9 hPa 0,0 l/m 0 min 0,0 UV-I 0 W/m 10,3 km/h (2 Bft)
01.02.2013 22:56 3,2 C 1,8 C 98 % 12 lf 994,9 hPa 0,0 l/m 0 min 0,0 UV-I 0 W/m 7,7 km/h (2 Bft)
01.02.2013 22:58 3,2 C 1,8 C 98 % 12 lf 994,9 hPa 0,0 l/m 0 min 0,0 UV-I 0 W/m 5,1 km/h (1 Bft)
01.02.2013 23:00 3,2 C 2,3 C 98 % 12 lf 995,0 hPa 0,0 l/m 0 min 0,0 UV-I 0 W/m 2,6 km/h (1 Bft)
01.02.2013 23:02 3,2 C 1,8 C 98 % 12 lf 995,0 hPa 0,0 l/m 0 min 0,0 UV-I 0 W/m 10,3 km/h (2 Bft)
01.02.2013 23:06 3,2 C 2,3 C 98 % 12 lf 995,0 hPa 0,0 l/m 0 min 0,0 UV-I 0 W/m 15,4 km/h (3 Bft)
01.02.2013 23:08 3,2 C 2,3 C 98 % 12 lf 995,0 hPa 0,0 l/m 0 min 0,0 UV-I 0 W/m 2,6 km/h (1 Bft)
01.02.2013 23:10 3,2 C 2,3 C 98 % 12 lf 995,1 hPa 0,0 l/m 0 min 0,0 UV-I 0 W/m 0,0 km/h (0 Bft)
01.02.2013 23:12 3,2 C 2,3 C 98 % 12 lf 995,0 hPa 0,0 l/m 0 min 0,0 UV-I 0 W/m 0,0 km/h (0 Bft)
01.02.2013 23:14 3,2 C 1,8 C 98 % 12 lf 995,1 hPa 0,0 l/m 0 min 0,0 UV-I 0 W/m 10,3 km/h (2 Bft)
01.02.2013 23:16 3,2 C 1,8 C 98 % 12 lf 995,1 hPa 0,0 l/m 0 min 0,0 UV-I 0 W/m 10,3 km/h (2 Bft)
01.02.2013 23:18 3,2 C 1,8 C 98 % 12 lf 995,1 hPa 0,0 l/m 0 min 0,0 UV-I 0 W/m 5,1 km/h (1 Bft)
01.02.2013 23:20 3,2 C 2,3 C 98 % 12 lf 995,1 hPa 0,0 l/m 0 min 0,0 UV-I 0 W/m 2,6 km/h (1 Bft)
01.02.2013 23:22 3,2 C 1,8 C 98 % 12 lf 995,1 hPa 0,0 l/m 0 min 0,0 UV-I 0 W/m 10,3 km/h (2 Bft)
01.02.2013 23:24 3,2 C 1,8 C 98 % 12 lf 995,1 hPa 0,0 l/m 0 min 0,0 UV-I 0 W/m 10,3 km/h (2 Bft)
01.02.2013 23:26 3,2 C 1,8 C 98 % 12 lf 995,1 hPa 0,0 l/m 0 min 0,0 UV-I 0 W/m 2,6 km/h (1 Bft)
01.02.2013 23:28 3,2 C 1,8 C 98 % 12 lf 995,1 hPa 0,0 l/m 0 min 0,0 UV-I 0 W/m 12,9 km/h (3 Bft)
01.02.2013 23:30 3,2 C 1,8 C 98 % 12 lf 995,1 hPa 0,0 l/m 0 min 0,0 UV-I 0 W/m 12,9 km/h (3 Bft)
01.02.2013 23:32 3,2 C 1,8 C 98 % 12 lf 995,2 hPa 0,0 l/m 0 min 0,0 UV-I 0 W/m 7,7 km/h (2 Bft)
01.02.2013 23:34 3,2 C 1,8 C 98 % 12 lf 995,2 hPa 0,0 l/m 0 min 0,0 UV-I 0 W/m 0,0 km/h (0 Bft)
01.02.2013 23:36 3,2 C 1,8 C 98 % 12 lf 995,2 hPa 0,0 l/m 0 min 0,0 UV-I 0 W/m 0,0 km/h (0 Bft)
01.02.2013 23:38 3,2 C 1,8 C 98 % 12 lf 995,2 hPa 0,0 l/m 0 min 0,0 UV-I 0 W/m 0,0 km/h (0 Bft)
01.02.2013 23:40 3,2 C 1,8 C 98 % 12 lf 995,2 hPa 0,0 l/m 0 min 0,0 UV-I 0 W/m 2,6 km/h (1 Bft)
01.02.2013 23:42 3,2 C 1,8 C 98 % 12 lf 995,2 hPa 0,0 l/m 0 min 0,0 UV-I 0 W/m 5,1 km/h (1 Bft)
01.02.2013 23:44 3,2 C 1,8 C 98 % 12 lf 995,3 hPa 0,0 l/m 0 min 0,0 UV-I 0 W/m 2,6 km/h (1 Bft)
01.02.2013 23:46 3,2 C 1,8 C 98 % 12 lf 995,2 hPa 0,0 l/m 0 min 0,0 UV-I 0 W/m 18,0 km/h (3 Bft)
01.02.2013 23:48 3,1 C 1,8 C 98 % 12 lf 995,1 hPa 0,0 l/m 0 min 0,0 UV-I 0 W/m 15,4 km/h (3 Bft)
01.02.2013 23:50 3,1 C 1,8 C 98 % 12 lf 995,1 hPa 0,0 l/m 0 min 0,0 UV-I 0 W/m 7,7 km/h (2 Bft)
01.02.2013 23:52 3,1 C 1,8 C 98 % 14 lf 995,2 hPa 0,0 l/m 0 min 0,0 UV-I 0 W/m 2,6 km/h (1 Bft)
01.02.2013 23:54 3,1 C 1,8 C 98 % 14 lf 995,2 hPa 0,0 l/m 0 min 0,0 UV-I 0 W/m 7,7 km/h (2 Bft)
01.02.2013 23:56 3,1 C 1,8 C 98 % 14 lf 995,2 hPa 0,0 l/m 0 min 0,0 UV-I 0 W/m 0,0 km/h (0 Bft)
01.02.2013 23:58 3,1 C 1,8 C 98 % 14 lf 995,2 hPa 0,0 l/m 0 min 0,0 UV-I 0 W/m 0,0 km/h (0 Bft)
_ Min-Zeit 23:46 22:46 00:00 00:00 19:10 - - - - 12:12
Minimum _ 3,1 C 1,8 C 84 % 0 lf 991,4 hPa - - - - 0,0 km/h (0 Bft)
_ Max-Zeit 00:00 00:00 18:16 09:58 00:10 10:58 00:00 00:00 11:56 19:46
Maximum _ 7,6 C 6,2 C 100 % 15 lf 1012,0 hPa 0,2 l/m 0 min 0,0 UV-I 90 W/m 33,5 km/h
N-NW (5 Bft)
Durchschnitt _ 6,0 C 4,7 C 93 % 8 lf 1001,4 hPa #8,0 l/m #0 min. 0,0 UV-I 33 W/m 11,1 km/h (2 Bft)
© 2013 W. Hausmann